Wetterdaten: Sonntag, 13.06.2010
Datum Zeit Temp. Innen Temp. Aussen UV X Diff Temp. Feuchte Inne Feuchte Auss Sonnenschein Luftdruck Regen ab 0,1 Wind Sonnenschein Windben
13.06.2010 00:00 20,1 C 12,0 C 0,1 UV-I 0,0 C 51 % 77 % 0 % 1018,3 hPa 0,0 l/m 0,0 km/h (0 Bft) 0 min 0,0 km/h (0 Bft)
13.06.2010 00:02 20,0 C 12,0 C 0,0 UV-I 0,0 C 51 % 77 % 0 % 1018,3 hPa 0,0 l/m 0,0 km/h (0 Bft) 0 min 0,0 km/h (0 Bft)
13.06.2010 00:04 20,0 C 12,0 C 0,0 UV-I 0,0 C 51 % 77 % 0 % 1018,3 hPa 0,0 l/m 0,0 km/h (0 Bft) 0 min 0,0 km/h (0 Bft)
13.06.2010 00:06 20,0 C 11,9 C 0,0 UV-I 0,0 C 51 % 77 % 0 % 1018,3 hPa 0,0 l/m 0,0 km/h (0 Bft) 0 min 0,0 km/h (0 Bft)
13.06.2010 00:08 20,0 C 11,9 C 0,0 UV-I 0,0 C 51 % 77 % 0 % 1018,3 hPa 0,0 l/m 0,0 km/h (0 Bft) 0 min 0,0 km/h (0 Bft)
13.06.2010 00:10 20,0 C 11,8 C 0,0 UV-I 0,0 C 52 % 78 % 0 % 1018,3 hPa 0,0 l/m 0,0 km/h (0 Bft) 0 min 0,0 km/h (0 Bft)
13.06.2010 00:22 19,9 C 11,4 C 0,0 UV-I 0,0 C 52 % 79 % 0 % 1018,6 hPa 0,0 l/m 0,0 km/h (0 Bft) 0 min 0,0 km/h (0 Bft)
13.06.2010 00:24 19,9 C 11,5 C 0,0 UV-I 0,0 C 52 % 79 % 0 % 1018,6 hPa 0,0 l/m 0,0 km/h (0 Bft) 0 min 0,0 km/h (0 Bft)
13.06.2010 00:28 19,8 C 11,3 C 0,1 UV-I 0,0 C 52 % 79 % 0 % 1018,6 hPa 0,0 l/m 0,0 km/h (0 Bft) 0 min 0,0 km/h (0 Bft)
13.06.2010 00:32 19,8 C 11,2 C 0,1 UV-I 0,0 C 52 % 80 % 0 % 1018,6 hPa 0,0 l/m 0,0 km/h (0 Bft) 0 min 0,0 km/h (0 Bft)
13.06.2010 00:34 19,8 C 11,3 C 0,1 UV-I 0,0 C 52 % 80 % 0 % 1018,6 hPa 0,0 l/m 0,0 km/h (0 Bft) 0 min 0,0 km/h (0 Bft)
13.06.2010 00:36 19,8 C 11,2 C 0,0 UV-I 0,0 C 52 % 80 % 0 % 1018,6 hPa 0,0 l/m 0,0 km/h (0 Bft) 0 min 0,0 km/h (0 Bft)
13.06.2010 00:38 19,8 C 11,1 C 0,0 UV-I 0,0 C 52 % 80 % 0 % 1018,6 hPa 0,0 l/m 0,0 km/h (0 Bft) 0 min 0,0 km/h (0 Bft)
13.06.2010 00:40 19,8 C 11,1 C 0,0 UV-I 0,0 C 52 % 80 % 0 % 1018,6 hPa 0,0 l/m 0,0 km/h (0 Bft) 0 min 0,0 km/h (0 Bft)
13.06.2010 00:42 19,7 C 11,1 C 0,0 UV-I 0,0 C 52 % 80 % 0 % 1018,6 hPa 0,0 l/m 0,0 km/h (0 Bft) 0 min 0,0 km/h (0 Bft)
13.06.2010 00:44 19,7 C 11,0 C 0,0 UV-I 0,0 C 52 % 81 % 0 % 1018,6 hPa 0,0 l/m 0,0 km/h (0 Bft) 0 min 0,0 km/h (0 Bft)
13.06.2010 00:46 19,7 C 11,0 C 0,0 UV-I 0,0 C 52 % 81 % 0 % 1018,6 hPa 0,0 l/m 0,0 km/h (0 Bft) 0 min 0,0 km/h (0 Bft)
13.06.2010 00:48 19,7 C 10,9 C 0,0 UV-I 0,0 C 52 % 81 % 0 % 1018,6 hPa 0,0 l/m 0,0 km/h (0 Bft) 0 min 0,0 km/h (0 Bft)
13.06.2010 00:52 19,6 C 10,8 C 0,0 UV-I 0,0 C 52 % 81 % 0 % 1018,6 hPa 0,0 l/m 0,0 km/h (0 Bft) 0 min 0,0 km/h (0 Bft)
13.06.2010 00:54 19,6 C 10,8 C 0,0 UV-I 0,0 C 52 % 81 % 0 % 1018,6 hPa 0,0 l/m 0,0 km/h (0 Bft) 0 min 0,0 km/h (0 Bft)
13.06.2010 00:56 19,6 C 10,8 C 0,0 UV-I 0,0 C 52 % 82 % 0 % 1018,6 hPa 0,0 l/m 0,0 km/h (0 Bft) 0 min 0,0 km/h (0 Bft)
13.06.2010 00:58 19,6 C 10,9 C 0,0 UV-I 0,0 C 52 % 82 % 0 % 1018,6 hPa 0,0 l/m 0,0 km/h (0 Bft) 0 min 0,0 km/h (0 Bft)
13.06.2010 01:00 19,6 C 10,8 C 0,0 UV-I 0,0 C 52 % 82 % 0 % 1018,6 hPa 0,0 l/m 0,0 km/h (0 Bft) 0 min 0,0 km/h (0 Bft)
13.06.2010 01:04 19,6 C 10,7 C 0,1 UV-I 0,0 C 52 % 82 % 0 % 1018,6 hPa 0,0 l/m 0,0 km/h (0 Bft) 0 min 0,0 km/h (0 Bft)
13.06.2010 01:06 19,5 C 10,7 C 0,1 UV-I 0,0 C 52 % 83 % 0 % 1018,6 hPa 0,0 l/m 0,0 km/h (0 Bft) 0 min 0,0 km/h (0 Bft)
13.06.2010 01:08 19,5 C 10,6 C 0,1 UV-I 0,0 C 53 % 83 % 0 % 1018,6 hPa 0,0 l/m 0,0 km/h (0 Bft) 0 min 0,0 km/h (0 Bft)
13.06.2010 01:12 19,5 C 10,6 C 0,0 UV-I 0,0 C 53 % 83 % 0 % 1019,1 hPa 0,0 l/m 0,0 km/h (0 Bft) 0 min 0,0 km/h (0 Bft)
13.06.2010 01:16 19,4 C 10,5 C 0,0 UV-I 0,0 C 53 % 83 % 0 % 1019,1 hPa 0,0 l/m 0,0 km/h (0 Bft) 0 min 0,0 km/h (0 Bft)
13.06.2010 01:18 19,5 C 10,5 C 0,0 UV-I 0,0 C 53 % 83 % 0 % 1019,1 hPa 0,0 l/m 0,0 km/h (0 Bft) 0 min 0,0 km/h (0 Bft)
13.06.2010 01:20 19,4 C 10,4 C 0,0 UV-I 0,0 C 53 % 83 % 0 % 1019,1 hPa 0,0 l/m 0,0 km/h (0 Bft) 0 min 0,0 km/h (0 Bft)
13.06.2010 01:22 19,4 C 10,4 C 0,0 UV-I 0,0 C 53 % 84 % 0 % 1019,1 hPa 0,0 l/m 0,0 km/h (0 Bft) 0 min 0,0 km/h (0 Bft)
13.06.2010 01:28 19,4 C 10,3 C 0,0 UV-I 0,0 C 53 % 84 % 0 % 1019,1 hPa 0,0 l/m 0,0 km/h (0 Bft) 0 min 0,0 km/h (0 Bft)
13.06.2010 01:32 19,2 C 10,3 C 0,0 UV-I 0,0 C 53 % 84 % 0 % 1018,9 hPa 0,0 l/m 0,0 km/h (0 Bft) 0 min 0,0 km/h (0 Bft)
13.06.2010 01:34 19,2 C 10,2 C 0,0 UV-I 0,0 C 53 % 84 % 0 % 1018,9 hPa 0,0 l/m 0,0 km/h (0 Bft) 0 min 0,0 km/h (0 Bft)
13.06.2010 01:36 19,2 C 10,2 C 0,0 UV-I 0,0 C 53 % 85 % 0 % 1018,9 hPa 0,0 l/m 0,0 km/h (0 Bft) 0 min 0,0 km/h (0 Bft)
13.06.2010 01:38 19,2 C 10,3 C 0,0 UV-I 0,0 C 53 % 85 % 0 % 1018,9 hPa 0,0 l/m 0,0 km/h (0 Bft) 0 min 0,0 km/h (0 Bft)
13.06.2010 01:42 19,3 C 10,3 C 0,1 UV-I 0,0 C 53 % 85 % 0 % 1018,9 hPa 0,0 l/m 0,0 km/h (0 Bft) 0 min 0,0 km/h (0 Bft)
13.06.2010 01:44 19,2 C 10,1 C 0,1 UV-I 0,0 C 53 % 85 % 0 % 1018,9 hPa 0,0 l/m 0,0 km/h (0 Bft) 0 min 0,0 km/h (0 Bft)
13.06.2010 01:46 19,2 C 10,1 C 0,0 UV-I 0,0 C 53 % 85 % 0 % 1018,9 hPa 0,0 l/m 0,0 km/h (0 Bft) 0 min 0,0 km/h (0 Bft)
13.06.2010 01:48 19,2 C 10,0 C 0,0 UV-I 0,0 C 53 % 85 % 0 % 1018,9 hPa 0,0 l/m 0,0 km/h (0 Bft) 0 min 0,0 km/h (0 Bft)
13.06.2010 01:50 19,2 C 10,0 C 0,0 UV-I 0,0 C 53 % 85 % 0 % 1018,9 hPa 0,0 l/m 0,0 km/h (0 Bft) 0 min 0,0 km/h (0 Bft)
13.06.2010 01:54 19,2 C 10,0 C 0,0 UV-I 0,0 C 53 % 85 % 0 % 1019,0 hPa 0,0 l/m 0,0 km/h (0 Bft) 0 min 0,0 km/h (0 Bft)
13.06.2010 01:56 19,2 C 10,0 C 0,0 UV-I 0,0 C 53 % 85 % 0 % 1019,0 hPa 0,0 l/m 0,0 km/h (0 Bft) 0 min 0,0 km/h (0 Bft)
13.06.2010 01:58 19,2 C 9,9 C 0,0 UV-I 0,0 C 53 % 85 % 0 % 1019,0 hPa 0,0 l/m 0,0 km/h (0 Bft) 0 min 0,0 km/h (0 Bft)
13.06.2010 02:02 19,2 C 9,9 C 0,0 UV-I 0,0 C 53 % 86 % 0 % 1019,0 hPa 0,0 l/m 0,0 km/h (0 Bft) 0 min 0,0 km/h (0 Bft)
13.06.2010 02:04 19,1 C 9,9 C 0,0 UV-I 0,0 C 53 % 86 % 0 % 1019,0 hPa 0,0 l/m 0,0 km/h (0 Bft) 0 min 0,0 km/h (0 Bft)
13.06.2010 02:06 19,1 C 9,8 C 0,0 UV-I 0,0 C 53 % 86 % 0 % 1019,0 hPa 0,0 l/m 0,0 km/h (0 Bft) 0 min 0,0 km/h (0 Bft)
13.06.2010 02:08 19,1 C 9,9 C 0,0 UV-I 0,0 C 53 % 86 % 0 % 1019,0 hPa 0,0 l/m 0,0 km/h (0 Bft) 0 min 0,0 km/h (0 Bft)
13.06.2010 02:12 19,1 C 9,9 C 0,1 UV-I 0,0 C 53 % 86 % 0 % 1019,1 hPa 0,0 l/m 0,0 km/h (0 Bft) 0 min 0,0 km/h (0 Bft)
13.06.2010 02:14 19,1 C 9,8 C 0,1 UV-I 0,0 C 53 % 87 % 0 % 1019,1 hPa 0,0 l/m 0,0 km/h (0 Bft) 0 min 0,0 km/h (0 Bft)
13.06.2010 02:18 19,0 C 9,7 C 0,0 UV-I 0,0 C 53 % 86 % 0 % 1019,1 hPa 0,0 l/m 0,0 km/h (0 Bft) 0 min 0,0 km/h (0 Bft)
13.06.2010 02:22 19,0 C 9,7 C 0,1 UV-I 0,0 C 53 % 87 % 0 % 1019,1 hPa 0,0 l/m 0,0 km/h (0 Bft) 0 min 0,0 km/h (0 Bft)
13.06.2010 02:24 19,0 C 9,6 C 0,1 UV-I 0,0 C 53 % 87 % 0 % 1019,1 hPa 0,0 l/m 0,0 km/h (0 Bft) 0 min 0,0 km/h (0 Bft)
13.06.2010 02:30 19,0 C 9,6 C 0,1 UV-I 0,0 C 53 % 87 % 0 % 1019,1 hPa 0,0 l/m 0,0 km/h (0 Bft) 0 min 0,0 km/h (0 Bft)
13.06.2010 02:32 18,9 C 9,5 C 0,1 UV-I 0,0 C 53 % 87 % 0 % 1019,2 hPa 0,0 l/m 0,0 km/h (0 Bft) 0 min 0,0 km/h (0 Bft)
13.06.2010 02:34 19,0 C 9,5 C 0,1 UV-I 0,0 C 54 % 87 % 0 % 1019,2 hPa 0,0 l/m 0,0 km/h (0 Bft) 0 min 0,0 km/h (0 Bft)
13.06.2010 02:36 19,0 C 9,5 C 0,1 UV-I 0,0 C 53 % 87 % 0 % 1019,2 hPa 0,0 l/m 0,0 km/h (0 Bft) 0 min 0,0 km/h (0 Bft)
13.06.2010 02:40 18,9 C 9,4 C 0,1 UV-I 0,0 C 54 % 88 % 0 % 1019,2 hPa 0,0 l/m 0,0 km/h (0 Bft) 0 min 0,0 km/h (0 Bft)
13.06.2010 02:44 18,9 C 9,4 C 0,1 UV-I 0,0 C 54 % 88 % 0 % 1019,2 hPa 0,0 l/m 0,0 km/h (0 Bft) 0 min 0,0 km/h (0 Bft)
13.06.2010 02:46 18,9 C 9,3 C 0,1 UV-I 0,0 C 54 % 87 % 0 % 1019,2 hPa 0,0 l/m 0,0 km/h (0 Bft) 0 min 0,0 km/h (0 Bft)
13.06.2010 02:48 18,9 C 9,3 C 0,1 UV-I 0,0 C 54 % 87 % 0 % 1019,2 hPa 0,0 l/m 0,0 km/h (0 Bft) 0 min 0,0 km/h (0 Bft)
13.06.2010 02:50 18,9 C 9,2 C 0,1 UV-I 0,0 C 54 % 88 % 0 % 1019,2 hPa 0,0 l/m 0,0 km/h (0 Bft) 0 min 0,0 km/h (0 Bft)
13.06.2010 02:52 18,9 C 9,2 C 0,1 UV-I 0,0 C 54 % 88 % 0 % 1018,8 hPa 0,0 l/m 0,0 km/h (0 Bft) 0 min 0,0 km/h (0 Bft)
13.06.2010 02:54 18,8 C 9,3 C 0,1 UV-I 0,0 C 54 % 88 % 0 % 1018,8 hPa 0,0 l/m 0,0 km/h (0 Bft) 0 min 0,0 km/h (0 Bft)
13.06.2010 02:56 18,8 C 9,2 C 0,1 UV-I 0,0 C 54 % 88 % 0 % 1018,8 hPa 0,0 l/m 0,0 km/h (0 Bft) 0 min 0,0 km/h (0 Bft)
13.06.2010 02:58 18,8 C 9,2 C 0,1 UV-I 0,0 C 54 % 88 % 0 % 1018,8 hPa 0,0 l/m 0,0 km/h (0 Bft) 0 min 0,0 km/h (0 Bft)
13.06.2010 03:02 18,8 C 9,1 C 0,1 UV-I 0,0 C 54 % 88 % 0 % 1018,8 hPa 0,0 l/m 0,0 km/h (0 Bft) 0 min 0,0 km/h (0 Bft)
13.06.2010 03:06 18,8 C 9,1 C 0,1 UV-I 0,0 C 54 % 88 % 0 % 1018,8 hPa 0,0 l/m 0,0 km/h (0 Bft) 0 min 0,0 km/h (0 Bft)
13.06.2010 03:08 18,8 C 9,1 C 0,1 UV-I 0,0 C 54 % 89 % 0 % 1018,8 hPa 0,0 l/m 0,0 km/h (0 Bft) 0 min 0,0 km/h (0 Bft)
13.06.2010 03:10 18,8 C 9,1 C 0,1 UV-I 0,0 C 54 % 89 % 0 % 1018,8 hPa 0,0 l/m 0,0 km/h (0 Bft) 0 min 0,0 km/h (0 Bft)
13.06.2010 03:12 18,8 C 9,1 C 0,1 UV-I 0,0 C 54 % 89 % 0 % 1018,8 hPa 0,0 l/m 0,0 km/h (0 Bft) 0 min 0,0 km/h (0 Bft)
13.06.2010 03:14 18,7 C 9,1 C 0,1 UV-I 0,0 C 54 % 89 % 0 % 1018,8 hPa 0,0 l/m 0,0 km/h (0 Bft) 0 min 0,0 km/h (0 Bft)
13.06.2010 03:16 18,7 C 9,1 C 0,1 UV-I 0,0 C 54 % 89 % 0 % 1018,8 hPa 0,0 l/m 0,0 km/h (0 Bft) 0 min 0,0 km/h (0 Bft)
13.06.2010 03:18 18,7 C 9,1 C 0,1 UV-I 0,0 C 54 % 89 % 0 % 1018,8 hPa 0,0 l/m 0,0 km/h (0 Bft) 0 min 0,0 km/h (0 Bft)
13.06.2010 03:20 18,7 C 9,1 C 0,1 UV-I 0,0 C 54 % 89 % 0 % 1018,8 hPa 0,0 l/m 0,0 km/h (0 Bft) 0 min 0,0 km/h (0 Bft)
13.06.2010 03:22 18,7 C 9,1 C 0,1 UV-I 0,0 C 54 % 89 % 0 % 1018,8 hPa 0,0 l/m 0,0 km/h (0 Bft) 0 min 0,0 km/h (0 Bft)
13.06.2010 03:26 18,7 C 9,1 C 0,1 UV-I 0,0 C 54 % 89 % 0 % 1018,8 hPa 0,0 l/m 0,0 km/h (0 Bft) 0 min 0,0 km/h (0 Bft)
13.06.2010 03:28 18,7 C 9,1 C 0,1 UV-I 0,0 C 54 % 89 % 0 % 1018,8 hPa 0,0 l/m 0,0 km/h (0 Bft) 0 min 0,0 km/h (0 Bft)
13.06.2010 03:30 18,6 C 9,0 C 0,1 UV-I 0,0 C 54 % 89 % 0 % 1018,8 hPa 0,0 l/m 0,0 km/h (0 Bft) 0 min 0,0 km/h (0 Bft)
13.06.2010 03:32 18,6 C 8,9 C 0,1 UV-I 0,0 C 54 % 89 % 0 % 1018,7 hPa 0,0 l/m 0,0 km/h (0 Bft) 0 min 0,0 km/h (0 Bft)
13.06.2010 03:38 18,6 C 8,8 C 0,1 UV-I 0,0 C 54 % 89 % 0 % 1018,7 hPa 0,0 l/m 0,0 km/h (0 Bft) 0 min 0,0 km/h (0 Bft)
13.06.2010 03:46 18,6 C 8,8 C 0,1 UV-I 0,0 C 54 % 90 % 0 % 1018,7 hPa 0,0 l/m 0,0 km/h (0 Bft) 0 min 0,0 km/h (0 Bft)
13.06.2010 03:48 18,5 C 8,7 C 0,1 UV-I 0,0 C 54 % 89 % 0 % 1018,7 hPa 0,0 l/m 0,0 km/h (0 Bft) 0 min 0,0 km/h (0 Bft)
13.06.2010 03:50 18,5 C 8,7 C 0,1 UV-I 0,0 C 54 % 89 % 0 % 1018,7 hPa 0,0 l/m 0,0 km/h (0 Bft) 0 min 0,0 km/h (0 Bft)
13.06.2010 03:52 18,5 C 8,7 C 0,1 UV-I 0,0 C 54 % 89 % 0 % 1018,8 hPa 0,0 l/m 0,0 km/h (0 Bft) 0 min 0,0 km/h (0 Bft)
13.06.2010 03:54 18,5 C 8,6 C 0,1 UV-I 0,0 C 54 % 89 % 0 % 1018,8 hPa 0,0 l/m 0,0 km/h (0 Bft) 0 min 0,0 km/h (0 Bft)
13.06.2010 03:56 18,5 C 8,6 C 0,1 UV-I 0,0 C 54 % 89 % 0 % 1018,8 hPa 0,0 l/m 0,0 km/h (0 Bft) 0 min 0,0 km/h (0 Bft)
13.06.2010 04:00 18,4 C 8,7 C 0,1 UV-I 0,0 C 54 % 90 % 0 % 1018,8 hPa 0,0 l/m 0,0 km/h (0 Bft) 0 min 0,0 km/h (0 Bft)
13.06.2010 04:02 18,4 C 8,7 C 0,1 UV-I 0,0 C 54 % 90 % 0 % 1018,8 hPa 0,0 l/m 0,0 km/h (0 Bft) 0 min 0,0 km/h (0 Bft)
13.06.2010 04:06 18,4 C 8,6 C 0,1 UV-I 0,0 C 54 % 90 % 0 % 1018,8 hPa 0,0 l/m 0,0 km/h (0 Bft) 0 min 0,0 km/h (0 Bft)
13.06.2010 04:08 18,4 C 8,5 C 0,1 UV-I 0,0 C 54 % 90 % 0 % 1018,8 hPa 0,0 l/m 0,0 km/h (0 Bft) 0 min 0,0 km/h (0 Bft)
13.06.2010 04:13 18,4 C 8,4 C 0,1 UV-I 0,0 C 54 % 90 % 0 % 1018,6 hPa 0,0 l/m 0,0 km/h (0 Bft) 0 min 0,0 km/h (0 Bft)
13.06.2010 04:18 18,4 C 8,5 C 0,1 UV-I 0,0 C 54 % 90 % 0 % 1018,6 hPa 0,0 l/m 0,0 km/h (0 Bft) 0 min 0,0 km/h (0 Bft)
13.06.2010 04:19 18,4 C 8,5 C 0,1 UV-I 0,0 C 54 % 90 % 0 % 1018,6 hPa 0,0 l/m 0,0 km/h (0 Bft) 0 min 0,0 km/h (0 Bft)
13.06.2010 04:20 18,4 C 8,5 C 0,1 UV-I 0,0 C 54 % 90 % 0 % 1018,6 hPa 0,0 l/m 0,0 km/h (0 Bft) 0 min 0,0 km/h (0 Bft)
13.06.2010 04:22 18,4 C 8,4 C 0,1 UV-I 0,0 C 54 % 90 % 0 % 1018,6 hPa 0,0 l/m 0,0 km/h (0 Bft) 0 min 0,0 km/h (0 Bft)
13.06.2010 04:24 18,2 C 8,4 C 0,1 UV-I 0,0 C 54 % 90 % 0 % 1018,6 hPa 0,0 l/m 0,0 km/h (0 Bft) 0 min 0,0 km/h (0 Bft)
13.06.2010 04:26 18,2 C 8,4 C 0,1 UV-I 0,0 C 54 % 90 % 0 % 1018,6 hPa 0,0 l/m 0,0 km/h (0 Bft) 0 min 0,0 km/h (0 Bft)
13.06.2010 04:28 18,3 C 8,4 C 0,1 UV-I 0,0 C 54 % 90 % 0 % 1018,6 hPa 0,0 l/m 0,0 km/h (0 Bft) 0 min 0,0 km/h (0 Bft)
13.06.2010 04:30 18,3 C 8,3 C 0,1 UV-I 0,0 C 54 % 90 % 0 % 1018,6 hPa 0,0 l/m 0,0 km/h (0 Bft) 0 min 0,0 km/h (0 Bft)
13.06.2010 04:32 18,3 C 8,3 C 0,1 UV-I 0,0 C 54 % 91 % 0 % 1018,6 hPa 0,0 l/m 0,0 km/h (0 Bft) 0 min 0,0 km/h (0 Bft)
13.06.2010 04:34 18,2 C 8,3 C 0,1 UV-I 0,0 C 54 % 91 % 0 % 1018,6 hPa 0,0 l/m 0,0 km/h (0 Bft) 0 min 0,0 km/h (0 Bft)
13.06.2010 04:36 18,2 C 8,3 C 0,1 UV-I 0,0 C 54 % 91 % 0 % 1018,6 hPa 0,0 l/m 0,0 km/h (0 Bft) 0 min 0,0 km/h (0 Bft)
13.06.2010 04:38 18,2 C 8,3 C 0,1 UV-I 0,0 C 54 % 91 % 0 % 1018,6 hPa 0,0 l/m 0,0 km/h (0 Bft) 0 min 0,0 km/h (0 Bft)
13.06.2010 04:40 18,2 C 8,3 C 0,1 UV-I 0,0 C 54 % 91 % 0 % 1018,6 hPa 0,0 l/m 0,0 km/h (0 Bft) 0 min 0,0 km/h (0 Bft)
13.06.2010 04:42 18,2 C 8,3 C 0,1 UV-I 0,0 C 54 % 91 % 0 % 1018,6 hPa 0,0 l/m 0,0 km/h (0 Bft) 0 min 0,0 km/h (0 Bft)
13.06.2010 04:44 18,2 C 8,2 C 0,1 UV-I 0,0 C 54 % 91 % 0 % 1018,6 hPa 0,0 l/m 0,0 km/h (0 Bft) 0 min 0,0 km/h (0 Bft)
13.06.2010 04:46 18,2 C 8,3 C 0,1 UV-I 0,0 C 54 % 91 % 0 % 1018,6 hPa 0,0 l/m 0,0 km/h (0 Bft) 0 min 0,0 km/h (0 Bft)
13.06.2010 04:48 18,2 C 8,3 C 0,1 UV-I 0,0 C 54 % 91 % 0 % 1018,6 hPa 0,0 l/m 0,0 km/h (0 Bft) 0 min 0,0 km/h (0 Bft)
13.06.2010 04:50 18,2 C 8,3 C 0,1 UV-I 0,0 C 54 % 91 % 0 % 1018,6 hPa 0,0 l/m 0,0 km/h (0 Bft) 0 min 0,0 km/h (0 Bft)
13.06.2010 04:52 18,2 C 8,3 C 0,1 UV-I 0,0 C 54 % 91 % 0 % 1018,5 hPa 0,0 l/m 0,0 km/h (0 Bft) 0 min 0,0 km/h (0 Bft)
13.06.2010 04:54 18,2 C 8,3 C 0,1 UV-I 0,0 C 54 % 91 % 0 % 1018,5 hPa 0,0 l/m 0,0 km/h (0 Bft) 0 min 0,0 km/h (0 Bft)
13.06.2010 04:56 18,1 C 8,2 C 0,1 UV-I 0,0 C 54 % 91 % 0 % 1018,5 hPa 0,0 l/m 0,0 km/h (0 Bft) 0 min 0,0 km/h (0 Bft)
13.06.2010 04:58 18,1 C 8,2 C 0,1 UV-I 0,0 C 54 % 91 % 0 % 1018,5 hPa 0,0 l/m 0,0 km/h (0 Bft) 0 min 0,0 km/h (0 Bft)
13.06.2010 05:00 18,1 C 8,1 C 0,1 UV-I 0,0 C 54 % 91 % 0 % 1018,5 hPa 0,0 l/m 0,0 km/h (0 Bft) 0 min 0,0 km/h (0 Bft)
13.06.2010 05:02 18,1 C 8,1 C 0,1 UV-I 0,0 C 54 % 91 % 0 % 1018,5 hPa 0,0 l/m 0,0 km/h (0 Bft) 0 min 0,0 km/h (0 Bft)
13.06.2010 05:04 18,1 C 8,1 C 0,1 UV-I 0,0 C 54 % 91 % 0 % 1018,5 hPa 0,0 l/m 0,0 km/h (0 Bft) 0 min 0,0 km/h (0 Bft)
13.06.2010 05:06 18,1 C 8,1 C 0,1 UV-I 0,0 C 54 % 91 % 0 % 1018,5 hPa 0,0 l/m 0,0 km/h (0 Bft) 0 min 0,0 km/h (0 Bft)
13.06.2010 05:08 18,1 C 8,1 C 0,1 UV-I 0,0 C 54 % 91 % 0 % 1018,5 hPa 0,0 l/m 0,0 km/h (0 Bft) 0 min 0,0 km/h (0 Bft)
13.06.2010 05:10 18,0 C 8,0 C 0,1 UV-I 0,0 C 54 % 91 % 0 % 1018,5 hPa 0,0 l/m 0,0 km/h (0 Bft) 0 min 0,0 km/h (0 Bft)
13.06.2010 05:12 18,1 C 8,1 C 0,1 UV-I 0,0 C 54 % 91 % 0 % 1018,4 hPa 0,0 l/m 0,0 km/h (0 Bft) 0 min 0,0 km/h (0 Bft)
13.06.2010 05:14 18,0 C 8,0 C 0,1 UV-I 0,0 C 54 % 91 % 0 % 1018,4 hPa 0,0 l/m 0,0 km/h (0 Bft) 0 min 0,0 km/h (0 Bft)
13.06.2010 05:16 18,0 C 8,1 C 0,1 UV-I 0,0 C 54 % 91 % 0 % 1018,4 hPa 0,0 l/m 0,0 km/h (0 Bft) 0 min 0,0 km/h (0 Bft)
13.06.2010 05:18 18,0 C 8,1 C 0,1 UV-I 0,0 C 54 % 91 % 0 % 1018,4 hPa 0,0 l/m 0,0 km/h (0 Bft) 0 min 0,0 km/h (0 Bft)
13.06.2010 05:20 18,0 C 8,0 C 0,1 UV-I 0,0 C 54 % 91 % 0 % 1018,4 hPa 0,0 l/m 0,0 km/h (0 Bft) 0 min 0,0 km/h (0 Bft)
13.06.2010 05:24 18,0 C 8,1 C 0,1 UV-I 0,0 C 54 % 91 % 0 % 1018,4 hPa 0,0 l/m 0,0 km/h (0 Bft) 0 min 0,0 km/h (0 Bft)
13.06.2010 05:26 18,0 C 8,0 C 0,1 UV-I 0,0 C 54 % 91 % 0 % 1018,4 hPa 0,0 l/m 0,0 km/h (0 Bft) 0 min 0,0 km/h (0 Bft)
13.06.2010 05:28 18,0 C 8,0 C 0,1 UV-I 0,0 C 54 % 91 % 0 % 1018,4 hPa 0,0 l/m 0,0 km/h (0 Bft) 0 min 0,0 km/h (0 Bft)
13.06.2010 05:30 18,0 C 7,9 C 0,1 UV-I 0,0 C 54 % 91 % 0 % 1018,4 hPa 0,0 l/m 0,0 km/h (0 Bft) 0 min 0,0 km/h (0 Bft)
13.06.2010 05:32 18,0 C 7,9 C 0,2 UV-I 0,0 C 54 % 91 % 0 % 1018,6 hPa 0,0 l/m 0,0 km/h (0 Bft) 0 min 0,0 km/h (0 Bft)
13.06.2010 05:34 18,0 C 7,9 C 0,2 UV-I 0,0 C 54 % 91 % 0 % 1018,6 hPa 0,0 l/m 0,0 km/h (0 Bft) 0 min 0,0 km/h (0 Bft)
13.06.2010 05:36 17,9 C 7,9 C 0,2 UV-I 0,0 C 54 % 91 % 0 % 1018,6 hPa 0,0 l/m 0,0 km/h (0 Bft) 0 min 0,0 km/h (0 Bft)
13.06.2010 05:38 17,9 C 7,9 C 0,2 UV-I 0,0 C 54 % 91 % 0 % 1018,6 hPa 0,0 l/m 0,0 km/h (0 Bft) 0 min 0,0 km/h (0 Bft)
13.06.2010 05:40 17,9 C 7,8 C 0,2 UV-I 0,0 C 54 % 92 % 0 % 1018,6 hPa 0,0 l/m 0,0 km/h (0 Bft) 0 min 0,0 km/h (0 Bft)
13.06.2010 05:42 17,9 C 7,8 C 0,3 UV-I 0,0 C 54 % 92 % 0 % 1018,6 hPa 0,0 l/m 0,0 km/h (0 Bft) 0 min 0,0 km/h (0 Bft)
13.06.2010 05:44 17,9 C 7,9 C 0,3 UV-I 0,0 C 54 % 92 % 0 % 1018,6 hPa 0,0 l/m 0,0 km/h (0 Bft) 0 min 0,0 km/h (0 Bft)
13.06.2010 05:46 17,9 C 7,9 C 0,3 UV-I 0,0 C 54 % 92 % 0 % 1018,6 hPa 0,0 l/m 0,0 km/h (0 Bft) 0 min 0,0 km/h (0 Bft)
13.06.2010 05:48 17,9 C 7,8 C 0,3 UV-I 0,0 C 54 % 92 % 0 % 1018,6 hPa 0,0 l/m 0,0 km/h (0 Bft) 0 min 0,0 km/h (0 Bft)
13.06.2010 05:50 17,9 C 7,8 C 0,3 UV-I 0,0 C 54 % 92 % 0 % 1018,6 hPa 0,0 l/m 0,0 km/h (0 Bft) 0 min 0,0 km/h (0 Bft)
13.06.2010 05:52 17,9 C 7,8 C 0,4 UV-I 0,0 C 54 % 92 % 0 % 1018,6 hPa 0,0 l/m 0,0 km/h (0 Bft) 0 min 0,0 km/h (0 Bft)
13.06.2010 05:54 17,8 C 7,9 C 0,4 UV-I 0,0 C 54 % 92 % 0 % 1018,6 hPa 0,0 l/m 0,0 km/h (0 Bft) 0 min 0,0 km/h (0 Bft)
13.06.2010 05:56 17,8 C 7,9 C 0,4 UV-I 0,0 C 54 % 92 % 0 % 1018,6 hPa 0,0 l/m 0,0 km/h (0 Bft) 0 min 0,0 km/h (0 Bft)
13.06.2010 05:58 17,8 C 7,8 C 0,4 UV-I 0,0 C 54 % 92 % 0 % 1018,6 hPa 0,0 l/m 0,0 km/h (0 Bft) 0 min 0,0 km/h (0 Bft)
13.06.2010 06:00 17,8 C 7,7 C 0,4 UV-I 0,0 C 54 % 92 % 0 % 1018,6 hPa 0,0 l/m 0,0 km/h (0 Bft) 0 min 0,0 km/h (0 Bft)
13.06.2010 06:02 17,8 C 7,7 C 0,5 UV-I 0,0 C 54 % 92 % 0 % 1018,6 hPa 0,0 l/m 0,0 km/h (0 Bft) 0 min 0,0 km/h (0 Bft)
13.06.2010 06:04 17,8 C 7,8 C 0,5 UV-I 0,0 C 55 % 92 % 0 % 1018,6 hPa 0,0 l/m 0,0 km/h (0 Bft) 0 min 0,0 km/h (0 Bft)
13.06.2010 06:06 17,8 C 7,8 C 0,6 UV-I 0,0 C 55 % 92 % 0 % 1018,6 hPa 0,0 l/m 0,0 km/h (0 Bft) 0 min 0,0 km/h (0 Bft)
13.06.2010 06:08 17,8 C 7,8 C 0,6 UV-I 0,0 C 55 % 92 % 0 % 1018,6 hPa 0,0 l/m 0,0 km/h (0 Bft) 0 min 0,0 km/h (0 Bft)
13.06.2010 06:12 17,8 C 7,9 C 0,7 UV-I 0,0 C 55 % 92 % 0 % 1018,7 hPa 0,0 l/m 0,0 km/h (0 Bft) 0 min 0,0 km/h (0 Bft)
13.06.2010 06:14 17,8 C 7,9 C 0,7 UV-I 0,0 C 54 % 92 % 0 % 1018,7 hPa 0,0 l/m 0,0 km/h (0 Bft) 0 min 0,0 km/h (0 Bft)
13.06.2010 06:16 17,8 C 7,9 C 0,8 UV-I 0,0 C 55 % 92 % 0 % 1018,7 hPa 0,0 l/m 0,0 km/h (0 Bft) 0 min 0,0 km/h (0 Bft)
13.06.2010 06:18 17,8 C 7,9 C 0,8 UV-I 0,0 C 55 % 92 % 0 % 1018,7 hPa 0,0 l/m 0,0 km/h (0 Bft) 0 min 0,0 km/h (0 Bft)
13.06.2010 06:20 17,8 C 7,9 C 0,8 UV-I 0,0 C 55 % 93 % 0 % 1018,7 hPa 0,0 l/m 0,0 km/h (0 Bft) 0 min 0,0 km/h (0 Bft)
13.06.2010 06:22 17,8 C 8,0 C 0,8 UV-I 0,0 C 55 % 93 % 0 % 1018,7 hPa 0,0 l/m 0,0 km/h (0 Bft) 0 min 0,0 km/h (0 Bft)
13.06.2010 06:24 17,8 C 8,1 C 0,8 UV-I 0,0 C 55 % 93 % 0 % 1018,7 hPa 0,0 l/m 0,0 km/h (0 Bft) 0 min 0,0 km/h (0 Bft)
13.06.2010 06:26 17,8 C 8,1 C 0,9 UV-I 0,0 C 55 % 93 % 0 % 1018,7 hPa 0,0 l/m 0,0 km/h (0 Bft) 0 min 0,0 km/h (0 Bft)
13.06.2010 06:28 17,7 C 8,1 C 0,9 UV-I 0,0 C 55 % 93 % 0 % 1018,7 hPa 0,0 l/m 0,0 km/h (0 Bft) 0 min 0,0 km/h (0 Bft)
13.06.2010 06:34 17,7 C 8,2 C 1,0 UV-I 0,0 C 55 % 93 % 0 % 1019,1 hPa 0,0 l/m 0,0 km/h (0 Bft) 0 min 0,0 km/h (0 Bft)
13.06.2010 06:36 17,7 C 8,3 C 1,1 UV-I 0,0 C 55 % 93 % 0 % 1019,1 hPa 0,0 l/m 0,0 km/h (0 Bft) 0 min 0,0 km/h (0 Bft)
13.06.2010 06:38 17,7 C 8,2 C 1,1 UV-I 0,0 C 55 % 93 % 0 % 1019,1 hPa 0,0 l/m 0,0 km/h (0 Bft) 0 min 0,0 km/h (0 Bft)
13.06.2010 06:40 17,7 C 8,3 C 1,1 UV-I 0,0 C 55 % 93 % 0 % 1019,1 hPa 0,0 l/m 0,0 km/h (0 Bft) 0 min 0,0 km/h (0 Bft)
13.06.2010 06:42 17,7 C 8,2 C 1,2 UV-I 0,0 C 55 % 93 % 0 % 1019,1 hPa 0,0 l/m 0,0 km/h (0 Bft) 0 min 0,0 km/h (0 Bft)
13.06.2010 06:44 17,7 C 8,3 C 1,2 UV-I 0,0 C 55 % 93 % 0 % 1019,1 hPa 0,0 l/m 0,0 km/h (0 Bft) 0 min 0,0 km/h (0 Bft)
13.06.2010 06:46 17,7 C 8,3 C 1,3 UV-I 0,0 C 55 % 93 % 0 % 1019,1 hPa 0,0 l/m 0,0 km/h (0 Bft) 0 min 0,0 km/h (0 Bft)
13.06.2010 06:48 17,7 C 8,3 C 1,3 UV-I 0,0 C 55 % 93 % 0 % 1019,1 hPa 0,0 l/m 0,0 km/h (0 Bft) 0 min 0,0 km/h (0 Bft)
13.06.2010 06:50 17,7 C 8,4 C 1,3 UV-I 0,0 C 55 % 93 % 0 % 1019,1 hPa 0,0 l/m 0,0 km/h (0 Bft) 0 min 0,0 km/h (0 Bft)
13.06.2010 06:52 17,7 C 8,4 C 1,4 UV-I 0,0 C 55 % 93 % 0 % 1019,2 hPa 0,0 l/m 0,0 km/h (0 Bft) 0 min 0,0 km/h (0 Bft)
13.06.2010 06:54 17,7 C 8,5 C 1,4 UV-I 0,0 C 55 % 93 % 0 % 1019,2 hPa 0,0 l/m 0,0 km/h (0 Bft) 0 min 0,0 km/h (0 Bft)
13.06.2010 06:56 17,7 C 8,4 C 1,5 UV-I 0,0 C 56 % 93 % 0 % 1019,2 hPa 0,0 l/m 0,0 km/h (0 Bft) 0 min 0,0 km/h (0 Bft)
13.06.2010 06:58 17,7 C 8,5 C 1,5 UV-I 0,0 C 56 % 93 % 0 % 1019,2 hPa 0,0 l/m 0,0 km/h (0 Bft) 0 min 0,0 km/h (0 Bft)
13.06.2010 07:00 17,7 C 8,7 C 1,5 UV-I 0,0 C 56 % 93 % 0 % 1019,2 hPa 0,0 l/m 0,0 km/h (0 Bft) 0 min 0,0 km/h (0 Bft)
13.06.2010 07:02 17,7 C 8,7 C 1,6 UV-I 0,0 C 56 % 93 % 0 % 1019,2 hPa 0,0 l/m 0,0 km/h (0 Bft) 0 min 0,0 km/h (0 Bft)
13.06.2010 07:04 17,7 C 8,8 C 1,6 UV-I 0,0 C 56 % 93 % 0 % 1019,2 hPa 0,0 l/m 0,0 km/h (0 Bft) 0 min 0,0 km/h (0 Bft)
13.06.2010 07:08 17,8 C 9,0 C 1,7 UV-I 0,0 C 56 % 93 % 0 % 1019,2 hPa 0,0 l/m 0,0 km/h (0 Bft) 0 min 0,0 km/h (0 Bft)
13.06.2010 07:10 17,7 C 9,0 C 1,7 UV-I 0,0 C 56 % 93 % 0 % 1019,2 hPa 0,0 l/m 0,0 km/h (0 Bft) 0 min 0,0 km/h (0 Bft)
13.06.2010 07:12 17,7 C 9,1 C 1,8 UV-I 0,0 C 56 % 93 % 0 % 1019,4 hPa 0,0 l/m 0,0 km/h (0 Bft) 0 min 0,0 km/h (0 Bft)
13.06.2010 07:14 17,8 C 9,2 C 1,8 UV-I 0,0 C 56 % 93 % 0 % 1019,4 hPa 0,0 l/m 0,0 km/h (0 Bft) 0 min 0,0 km/h (0 Bft)
13.06.2010 07:16 17,8 C 9,2 C 1,8 UV-I 0,0 C 56 % 93 % 0 % 1019,4 hPa 0,0 l/m 0,0 km/h (0 Bft) 0 min 0,0 km/h (0 Bft)
13.06.2010 07:18 17,8 C 9,3 C 1,8 UV-I 0,0 C 56 % 93 % 0 % 1019,4 hPa 0,0 l/m 0,4 km/h (0 Bft) 0 min 3,5 km/h (1 Bft)
13.06.2010 07:20 17,8 C 9,3 C 1,8 UV-I 0,0 C 56 % 93 % 0 % 1019,4 hPa 0,0 l/m 1,2 km/h (1 Bft) 0 min 4,2 km/h (1 Bft)
13.06.2010 07:22 17,8 C 9,5 C 2,0 UV-I 0,0 C 56 % 93 % 0 % 1019,4 hPa 0,0 l/m 1,6 km/h (1 Bft) 0 min 3,5 km/h (1 Bft)
13.06.2010 07:24 17,8 C 9,5 C 2,0 UV-I 0,0 C 56 % 93 % 0 % 1019,4 hPa 0,0 l/m 1,6 km/h (1 Bft) 0 min 0,0 km/h (0 Bft)
13.06.2010 07:28 17,8 C 9,6 C 2,0 UV-I 0,0 C 56 % 92 % 0 % 1019,4 hPa 0,0 l/m 2,0 km/h (1 Bft) 0 min 4,5 km/h (1 Bft)
13.06.2010 07:32 17,8 C 9,7 C 2,1 UV-I 0,0 C 56 % 93 % 0 % 1019,2 hPa 0,0 l/m 0,8 km/h (0 Bft) 0 min 0,0 km/h (0 Bft)
13.06.2010 07:34 17,8 C 9,9 C 2,1 UV-I 0,0 C 56 % 93 % 0 % 1019,2 hPa 0,0 l/m 1,2 km/h (1 Bft) 0 min 0,0 km/h (0 Bft)
13.06.2010 07:36 17,9 C 9,9 C 2,2 UV-I 0,0 C 56 % 92 % 0 % 1019,2 hPa 0,0 l/m 1,2 km/h (1 Bft) 0 min 0,0 km/h (0 Bft)
13.06.2010 07:38 17,9 C 9,9 C 2,2 UV-I 0,0 C 56 % 92 % 0 % 1019,2 hPa 0,0 l/m 1,2 km/h (1 Bft) 0 min 0,0 km/h (0 Bft)
13.06.2010 07:40 17,9 C 10,1 C 2,2 UV-I 0,0 C 56 % 92 % 0 % 1019,2 hPa 0,0 l/m 1,2 km/h (1 Bft) 0 min 0,0 km/h (0 Bft)
13.06.2010 07:42 17,9 C 10,1 C 2,3 UV-I 0,0 C 56 % 92 % 0 % 1019,2 hPa 0,0 l/m 1,2 km/h (1 Bft) 0 min 8,0 km/h (2 Bft)
13.06.2010 07:44 17,9 C 10,1 C 2,3 UV-I 0,0 C 56 % 92 % 0 % 1019,2 hPa 0,0 l/m 1,6 km/h (1 Bft) 0 min 0,0 km/h (0 Bft)
13.06.2010 07:46 17,9 C 10,3 C 2,4 UV-I 0,0 C 56 % 92 % 0 % 1019,2 hPa 0,0 l/m 2,0 km/h (1 Bft) 0 min 4,2 km/h (1 Bft)
13.06.2010 07:54 18,0 C 10,6 C 2,5 UV-I 0,0 C 57 % 91 % 0 % 1019,4 hPa 0,0 l/m 3,6 km/h (1 Bft) 0 min 8,0 km/h (2 Bft)
13.06.2010 07:58 18,0 C 10,7 C 2,6 UV-I 0,0 C 57 % 90 % 0 % 1019,4 hPa 0,0 l/m 3,6 km/h (1 Bft) 0 min 3,5 km/h (1 Bft)
13.06.2010 08:00 18,0 C 10,8 C 2,6 UV-I 0,0 C 57 % 89 % 0 % 1019,4 hPa 0,0 l/m 3,2 km/h (1 Bft) 0 min 6,8 km/h (2 Bft)
13.06.2010 08:02 18,0 C 10,8 C 2,7 UV-I 0,0 C 57 % 89 % 0 % 1019,4 hPa 0,0 l/m 2,4 km/h (1 Bft) 0 min 0,0 km/h (0 Bft)
13.06.2010 08:04 18,0 C 10,8 C 2,7 UV-I 0,0 C 56 % 89 % 0 % 1019,4 hPa 0,0 l/m 2,0 km/h (1 Bft) 0 min 0,0 km/h (0 Bft)
13.06.2010 08:06 18,0 C 10,9 C 2,7 UV-I 0,0 C 57 % 89 % 0 % 1019,4 hPa 0,0 l/m 2,0 km/h (1 Bft) 0 min 7,7 km/h (2 Bft)
13.06.2010 08:08 18,0 C 10,9 C 2,7 UV-I 0,0 C 57 % 89 % 0 % 1019,4 hPa 0,0 l/m 2,0 km/h (1 Bft) 0 min 0,0 km/h (0 Bft)
13.06.2010 08:13 18,1 C 11,1 C 2,9 UV-I 0,1 C 57 % 89 % 3 % 1019,6 hPa 0,0 l/m 1,6 km/h (1 Bft) 0 min 5,5 km/h (1 Bft)
13.06.2010 08:16 18,1 C 11,2 C 3,0 UV-I 0,1 C 57 % 88 % 3 % 1019,6 hPa 0,0 l/m 2,8 km/h (1 Bft) 0 min 0,0 km/h (0 Bft)
13.06.2010 08:18 18,1 C 11,2 C 3,0 UV-I 0,3 C 57 % 88 % 9 % 1019,6 hPa 0,0 l/m 2,0 km/h (1 Bft) 0 min 0,0 km/h (0 Bft)
13.06.2010 08:20 18,1 C 11,2 C 3,0 UV-I 0,8 C 57 % 88 % 23 % 1019,6 hPa 0,0 l/m 2,0 km/h (1 Bft) 0 min 0,0 km/h (0 Bft)
13.06.2010 08:22 18,1 C 11,3 C 3,1 UV-I 2,0 C 57 % 88 % 57 % 1019,6 hPa 0,0 l/m 2,0 km/h (1 Bft) 0 min 0,0 km/h (0 Bft)
13.06.2010 08:24 18,1 C 11,3 C 3,1 UV-I 3,3 C 57 % 87 % 94 % 1019,6 hPa 0,0 l/m 1,6 km/h (1 Bft) 2 min 0,0 km/h (0 Bft)
13.06.2010 08:26 18,2 C 11,4 C 3,4 UV-I 3,8 C 56 % 87 % 100 % 1019,6 hPa 0,0 l/m 0,8 km/h (0 Bft) 2 min 5,5 km/h (1 Bft)
13.06.2010 08:28 18,2 C 11,5 C 3,4 UV-I 4,4 C 56 % 87 % 100 % 1019,6 hPa 0,0 l/m 0,8 km/h (0 Bft) 2 min 0,0 km/h (0 Bft)
13.06.2010 08:30 18,2 C 11,6 C 3,4 UV-I 4,3 C 57 % 87 % 100 % 1019,6 hPa 0,0 l/m 0,8 km/h (0 Bft) 2 min 0,0 km/h (0 Bft)
13.06.2010 08:32 18,2 C 11,8 C 4,2 UV-I 5,4 C 56 % 86 % 100 % 1019,5 hPa 0,0 l/m 1,6 km/h (1 Bft) 2 min 0,0 km/h (0 Bft)
13.06.2010 08:34 18,2 C 11,8 C 4,2 UV-I 5,8 C 57 % 86 % 100 % 1019,5 hPa 0,0 l/m 1,2 km/h (1 Bft) 2 min 0,0 km/h (0 Bft)
13.06.2010 08:36 18,2 C 12,0 C 4,5 UV-I 6,0 C 57 % 86 % 100 % 1019,5 hPa 0,0 l/m 1,2 km/h (1 Bft) 2 min 0,0 km/h (0 Bft)
13.06.2010 08:38 18,2 C 12,1 C 4,5 UV-I 5,8 C 57 % 86 % 100 % 1019,5 hPa 0,0 l/m 0,8 km/h (0 Bft) 2 min 0,0 km/h (0 Bft)
13.06.2010 08:40 18,2 C 12,2 C 4,5 UV-I 5,4 C 57 % 85 % 100 % 1019,5 hPa 0,0 l/m 0,8 km/h (0 Bft) 2 min 0,0 km/h (0 Bft)
13.06.2010 08:42 18,2 C 12,4 C 4,8 UV-I 5,3 C 57 % 84 % 100 % 1019,5 hPa 0,0 l/m 0,8 km/h (0 Bft) 2 min 5,1 km/h (1 Bft)
13.06.2010 08:44 18,3 C 12,4 C 4,8 UV-I 5,9 C 57 % 84 % 100 % 1019,5 hPa 0,0 l/m 0,4 km/h (0 Bft) 2 min 0,0 km/h (0 Bft)
13.06.2010 08:46 18,3 C 12,5 C 5,9 UV-I 6,4 C 57 % 83 % 100 % 1019,5 hPa 0,0 l/m 1,2 km/h (1 Bft) 2 min 5,5 km/h (1 Bft)
13.06.2010 08:48 18,3 C 12,7 C 5,9 UV-I 6,4 C 56 % 83 % 100 % 1019,5 hPa 0,0 l/m 1,2 km/h (1 Bft) 2 min 0,0 km/h (0 Bft)
13.06.2010 08:50 18,3 C 12,7 C 5,9 UV-I 6,4 C 56 % 83 % 100 % 1019,5 hPa 0,0 l/m 1,2 km/h (1 Bft) 2 min 0,0 km/h (0 Bft)
13.06.2010 08:52 18,4 C 12,9 C 6,7 UV-I 7,6 C 56 % 82 % 100 % 1019,8 hPa 0,0 l/m 1,2 km/h (1 Bft) 2 min 3,2 km/h (1 Bft)
13.06.2010 08:54 18,4 C 12,9 C 6,7 UV-I 7,8 C 56 % 82 % 100 % 1019,8 hPa 0,0 l/m 1,2 km/h (1 Bft) 2 min 4,2 km/h (1 Bft)
13.06.2010 08:56 18,4 C 13,0 C 7,7 UV-I 8,0 C 56 % 82 % 100 % 1019,8 hPa 0,0 l/m 1,2 km/h (1 Bft) 2 min 0,0 km/h (0 Bft)
13.06.2010 08:58 18,4 C 13,2 C 7,7 UV-I 8,0 C 56 % 82 % 100 % 1019,8 hPa 0,0 l/m 0,8 km/h (0 Bft) 2 min 5,8 km/h (2 Bft)
13.06.2010 09:00 18,4 C 13,4 C 7,7 UV-I 8,0 C 57 % 81 % 100 % 1019,8 hPa 0,0 l/m 1,2 km/h (1 Bft) 2 min 0,0 km/h (0 Bft)
13.06.2010 09:02 18,4 C 13,5 C 8,5 UV-I 8,4 C 57 % 81 % 100 % 1019,8 hPa 0,0 l/m 1,2 km/h (1 Bft) 2 min 0,0 km/h (0 Bft)
13.06.2010 09:04 18,4 C 13,6 C 8,5 UV-I 8,7 C 57 % 79 % 100 % 1019,8 hPa 0,0 l/m 1,2 km/h (1 Bft) 2 min 0,0 km/h (0 Bft)
13.06.2010 09:06 18,4 C 13,6 C 8,0 UV-I 8,9 C 57 % 79 % 100 % 1019,8 hPa 0,0 l/m 1,2 km/h (1 Bft) 2 min 3,5 km/h (1 Bft)
13.06.2010 09:08 18,5 C 13,6 C 8,0 UV-I 8,1 C 57 % 78 % 100 % 1019,8 hPa 0,0 l/m 2,0 km/h (1 Bft) 2 min 4,2 km/h (1 Bft)
13.06.2010 09:10 18,5 C 13,5 C 8,0 UV-I 8,2 C 57 % 78 % 100 % 1019,8 hPa 0,0 l/m 2,0 km/h (1 Bft) 2 min 4,2 km/h (1 Bft)
13.06.2010 09:12 18,5 C 13,5 C 4,3 UV-I 6,4 C 56 % 78 % 100 % 1019,8 hPa 0,0 l/m 1,6 km/h (1 Bft) 2 min 0,0 km/h (0 Bft)
13.06.2010 09:14 18,5 C 13,6 C 4,3 UV-I 5,7 C 56 % 78 % 100 % 1019,8 hPa 0,0 l/m 2,0 km/h (1 Bft) 2 min 0,0 km/h (0 Bft)
13.06.2010 09:16 18,6 C 13,6 C 7,1 UV-I 5,8 C 56 % 78 % 100 % 1019,8 hPa 0,0 l/m 1,6 km/h (1 Bft) 2 min 0,0 km/h (0 Bft)
13.06.2010 09:18 18,6 C 13,6 C 7,1 UV-I 5,8 C 56 % 76 % 100 % 1019,8 hPa 0,0 l/m 2,0 km/h (1 Bft) 2 min 4,8 km/h (1 Bft)
13.06.2010 09:20 18,6 C 13,6 C 7,1 UV-I 5,4 C 56 % 76 % 100 % 1019,8 hPa 0,0 l/m 2,4 km/h (1 Bft) 2 min 8,4 km/h (2 Bft)
13.06.2010 09:22 18,7 C 13,6 C 7,3 UV-I 5,5 C 56 % 76 % 100 % 1019,8 hPa 0,0 l/m 2,8 km/h (1 Bft) 2 min 0,0 km/h (0 Bft)
13.06.2010 09:24 18,7 C 13,5 C 7,3 UV-I 5,8 C 56 % 76 % 100 % 1019,8 hPa 0,0 l/m 2,4 km/h (1 Bft) 2 min 0,0 km/h (0 Bft)
13.06.2010 09:30 18,8 C 13,4 C 6,1 UV-I 4,9 C 55 % 74 % 100 % 1019,8 hPa 0,0 l/m 3,2 km/h (1 Bft) 2 min 9,0 km/h (2 Bft)
13.06.2010 09:32 18,8 C 13,4 C 4,5 UV-I 3,7 C 55 % 75 % 100 % 1020,2 hPa 0,0 l/m 3,2 km/h (1 Bft) 2 min 3,2 km/h (1 Bft)
13.06.2010 09:36 18,8 C 13,2 C 4,6 UV-I 2,8 C 55 % 75 % 80 % 1020,2 hPa 0,0 l/m 3,6 km/h (1 Bft) 0 min 6,8 km/h (2 Bft)
13.06.2010 09:38 18,8 C 13,3 C 4,6 UV-I 2,4 C 55 % 76 % 69 % 1020,2 hPa 0,0 l/m 3,2 km/h (1 Bft) 0 min 0,0 km/h (0 Bft)
13.06.2010 09:40 18,8 C 13,2 C 4,6 UV-I 2,2 C 55 % 75 % 63 % 1020,2 hPa 0,0 l/m 2,8 km/h (1 Bft) 0 min 3,2 km/h (1 Bft)
13.06.2010 09:44 18,8 C 13,3 C 6,9 UV-I 3,0 C 55 % 75 % 86 % 1020,2 hPa 0,0 l/m 1,6 km/h (1 Bft) 2 min 7,4 km/h (2 Bft)
13.06.2010 09:46 18,8 C 13,3 C 16,2 UV-I 4,5 C 55 % 75 % 100 % 1020,2 hPa 0,0 l/m 1,2 km/h (1 Bft) 2 min 0,0 km/h (0 Bft)
13.06.2010 09:48 18,8 C 13,4 C 16,2 UV-I 5,4 C 54 % 76 % 100 % 1020,2 hPa 0,0 l/m 1,6 km/h (1 Bft) 2 min 9,0 km/h (2 Bft)
13.06.2010 09:52 18,8 C 13,7 C 16,8 UV-I 7,0 C 54 % 74 % 100 % 1019,9 hPa 0,0 l/m 3,2 km/h (1 Bft) 2 min 5,1 km/h (1 Bft)
13.06.2010 09:54 18,8 C 13,7 C 16,8 UV-I 7,4 C 54 % 72 % 100 % 1019,9 hPa 0,0 l/m 4,0 km/h (1 Bft) 2 min 6,1 km/h (2 Bft)
13.06.2010 09:56 18,9 C 13,9 C 17,1 UV-I 7,6 C 54 % 72 % 100 % 1019,9 hPa 0,0 l/m 4,0 km/h (1 Bft) 2 min 7,1 km/h (2 Bft)
13.06.2010 09:58 18,9 C 14,1 C 17,1 UV-I 7,7 C 54 % 72 % 100 % 1019,9 hPa 0,0 l/m 4,4 km/h (1 Bft) 2 min 3,2 km/h (1 Bft)
13.06.2010 10:02 18,9 C 14,3 C 17,1 UV-I 7,8 C 54 % 70 % 100 % 1019,9 hPa 0,0 l/m 4,4 km/h (1 Bft) 2 min 9,3 km/h (2 Bft)
13.06.2010 10:04 18,9 C 14,4 C 17,1 UV-I 7,3 C 54 % 71 % 100 % 1019,9 hPa 0,0 l/m 4,8 km/h (1 Bft) 2 min 4,8 km/h (1 Bft)
13.06.2010 10:06 18,9 C 14,5 C 13,0 UV-I 6,5 C 54 % 71 % 100 % 1019,9 hPa 0,0 l/m 4,4 km/h (1 Bft) 2 min 0,0 km/h (0 Bft)
13.06.2010 10:08 19,0 C 14,7 C 13,0 UV-I 7,1 C 54 % 72 % 100 % 1019,9 hPa 0,0 l/m 3,6 km/h (1 Bft) 2 min 0,0 km/h (0 Bft)
13.06.2010 10:10 19,0 C 14,8 C 13,0 UV-I 7,0 C 54 % 71 % 100 % 1019,9 hPa 0,0 l/m 3,6 km/h (1 Bft) 2 min 0,0 km/h (0 Bft)
13.06.2010 10:12 19,0 C 14,9 C 12,2 UV-I 7,1 C 54 % 69 % 100 % 1019,9 hPa 0,0 l/m 3,2 km/h (1 Bft) 2 min 4,2 km/h (1 Bft)
13.06.2010 10:14 19,0 C 15,0 C 12,2 UV-I 7,2 C 54 % 69 % 100 % 1019,9 hPa 0,0 l/m 2,4 km/h (1 Bft) 2 min 4,2 km/h (1 Bft)
13.06.2010 10:16 19,0 C 15,2 C 12,8 UV-I 7,5 C 54 % 68 % 100 % 1019,9 hPa 0,0 l/m 2,0 km/h (1 Bft) 2 min 4,8 km/h (1 Bft)
13.06.2010 10:20 19,1 C 15,0 C 12,8 UV-I 6,9 C 54 % 66 % 100 % 1019,9 hPa 0,0 l/m 4,8 km/h (1 Bft) 2 min 11,3 km/h (2 Bft)
13.06.2010 10:22 19,1 C 14,9 C 6,9 UV-I 6,3 C 54 % 67 % 100 % 1019,9 hPa 0,0 l/m 5,2 km/h (1 Bft) 2 min 7,7 km/h (2 Bft)
13.06.2010 10:26 19,2 C 14,7 C 7,0 UV-I 5,0 C 54 % 67 % 100 % 1019,9 hPa 0,0 l/m 6,4 km/h (2 Bft) 2 min 8,0 km/h (2 Bft)
13.06.2010 10:28 19,2 C 14,7 C 7,0 UV-I 4,7 C 54 % 67 % 100 % 1019,9 hPa 0,0 l/m 5,2 km/h (1 Bft) 2 min 3,2 km/h (1 Bft)
13.06.2010 10:30 19,2 C 14,8 C 7,0 UV-I 4,6 C 54 % 68 % 100 % 1019,9 hPa 0,0 l/m 5,2 km/h (1 Bft) 2 min 3,2 km/h (1 Bft)
13.06.2010 10:32 19,2 C 14,9 C 12,9 UV-I 5,9 C 54 % 67 % 100 % 1019,6 hPa 0,0 l/m 3,6 km/h (1 Bft) 2 min 3,5 km/h (1 Bft)
13.06.2010 10:34 19,2 C 15,1 C 12,9 UV-I 6,0 C 53 % 66 % 100 % 1019,6 hPa 0,0 l/m 2,4 km/h (1 Bft) 2 min 0,0 km/h (0 Bft)
13.06.2010 10:36 19,2 C 15,3 C 16,6 UV-I 6,9 C 53 % 67 % 100 % 1019,6 hPa 0,0 l/m 2,0 km/h (1 Bft) 2 min 0,0 km/h (0 Bft)
13.06.2010 10:38 19,2 C 15,3 C 16,6 UV-I 7,7 C 53 % 65 % 100 % 1019,6 hPa 0,0 l/m 1,6 km/h (1 Bft) 2 min 3,2 km/h (1 Bft)
13.06.2010 10:40 19,4 C 15,4 C 16,6 UV-I 8,6 C 53 % 66 % 100 % 1019,6 hPa 0,0 l/m 1,2 km/h (1 Bft) 2 min 0,0 km/h (0 Bft)
13.06.2010 10:42 19,4 C 15,4 C 17,6 UV-I 9,5 C 53 % 66 % 100 % 1019,6 hPa 0,0 l/m 2,0 km/h (1 Bft) 2 min 9,3 km/h (2 Bft)
13.06.2010 10:44 19,4 C 15,7 C 17,6 UV-I 9,5 C 53 % 66 % 100 % 1019,6 hPa 0,0 l/m 2,0 km/h (1 Bft) 2 min 7,1 km/h (2 Bft)
13.06.2010 10:46 19,5 C 15,9 C 17,6 UV-I 9,5 C 53 % 66 % 100 % 1019,6 hPa 0,0 l/m 3,2 km/h (1 Bft) 2 min 5,8 km/h (2 Bft)
13.06.2010 10:48 19,5 C 15,9 C 17,6 UV-I 9,6 C 53 % 65 % 100 % 1019,6 hPa 0,0 l/m 4,0 km/h (1 Bft) 2 min 6,1 km/h (2 Bft)
13.06.2010 10:50 19,6 C 16,1 C 17,6 UV-I 9,4 C 53 % 67 % 100 % 1019,6 hPa 0,0 l/m 4,0 km/h (1 Bft) 2 min 6,1 km/h (2 Bft)
13.06.2010 10:52 19,6 C 16,1 C 14,5 UV-I 9,0 C 53 % 67 % 100 % 1020,1 hPa 0,0 l/m 4,0 km/h (1 Bft) 2 min 6,8 km/h (2 Bft)
13.06.2010 10:54 19,6 C 16,3 C 14,5 UV-I 8,5 C 53 % 65 % 100 % 1020,1 hPa 0,0 l/m 4,4 km/h (1 Bft) 2 min 4,2 km/h (1 Bft)
13.06.2010 10:56 19,6 C 16,5 C 14,8 UV-I 8,2 C 53 % 63 % 100 % 1020,1 hPa 0,0 l/m 4,0 km/h (1 Bft) 2 min 5,1 km/h (1 Bft)
13.06.2010 10:58 19,6 C 16,5 C 14,8 UV-I 8,0 C 53 % 64 % 100 % 1020,1 hPa 0,0 l/m 4,4 km/h (1 Bft) 2 min 3,2 km/h (1 Bft)
13.06.2010 11:02 19,7 C 16,5 C 12,6 UV-I 7,8 C 52 % 61 % 100 % 1020,1 hPa 0,0 l/m 6,0 km/h (2 Bft) 2 min 12,9 km/h (3 Bft)
13.06.2010 11:04 19,7 C 16,5 C 12,6 UV-I 7,8 C 52 % 62 % 100 % 1020,1 hPa 0,0 l/m 4,8 km/h (1 Bft) 2 min 7,4 km/h (2 Bft)
13.06.2010 11:06 19,7 C 16,4 C 11,1 UV-I 7,9 C 52 % 62 % 100 % 1020,1 hPa 0,0 l/m 5,2 km/h (1 Bft) 2 min 4,8 km/h (1 Bft)
13.06.2010 11:08 19,7 C 16,2 C 11,1 UV-I 7,3 C 52 % 63 % 100 % 1020,1 hPa 0,0 l/m 4,4 km/h (1 Bft) 2 min 3,9 km/h (1 Bft)
13.06.2010 11:10 19,7 C 16,3 C 11,1 UV-I 7,2 C 52 % 62 % 100 % 1020,1 hPa 0,0 l/m 4,4 km/h (1 Bft) 2 min 3,9 km/h (1 Bft)
13.06.2010 11:14 19,8 C 16,1 C 7,9 UV-I 5,7 C 52 % 62 % 100 % 1019,8 hPa 0,0 l/m 4,0 km/h (1 Bft) 2 min 11,6 km/h (2 Bft)
13.06.2010 11:16 19,8 C 16,1 C 13,0 UV-I 5,9 C 52 % 63 % 100 % 1019,8 hPa 0,0 l/m 2,8 km/h (1 Bft) 2 min 3,2 km/h (1 Bft)
13.06.2010 11:18 19,8 C 16,2 C 13,0 UV-I 6,4 C 52 % 61 % 100 % 1019,8 hPa 0,0 l/m 2,8 km/h (1 Bft) 2 min 3,2 km/h (1 Bft)
13.06.2010 11:20 19,8 C 16,3 C 13,0 UV-I 6,7 C 51 % 59 % 100 % 1019,8 hPa 0,0 l/m 3,6 km/h (1 Bft) 2 min 5,8 km/h (2 Bft)
13.06.2010 11:24 19,9 C 16,4 C 13,4 UV-I 6,9 C 51 % 60 % 100 % 1019,8 hPa 0,0 l/m 3,6 km/h (1 Bft) 2 min 4,8 km/h (1 Bft)
13.06.2010 11:28 19,9 C 16,5 C 13,4 UV-I 7,2 C 51 % 58 % 100 % 1019,8 hPa 0,0 l/m 5,2 km/h (1 Bft) 2 min 10,0 km/h (2 Bft)
13.06.2010 11:30 19,9 C 16,5 C 13,4 UV-I 7,2 C 51 % 59 % 100 % 1019,8 hPa 0,0 l/m 5,2 km/h (1 Bft) 2 min 9,7 km/h (2 Bft)
13.06.2010 11:32 19,9 C 16,6 C 13,2 UV-I 7,1 C 51 % 60 % 100 % 1019,7 hPa 0,0 l/m 5,2 km/h (1 Bft) 2 min 6,4 km/h (2 Bft)
13.06.2010 11:38 19,9 C 16,5 C 13,0 UV-I 7,5 C 51 % 57 % 100 % 1019,7 hPa 0,0 l/m 6,4 km/h (2 Bft) 2 min 5,1 km/h (1 Bft)
13.06.2010 11:44 19,9 C 16,4 C 9,8 UV-I 6,0 C 50 % 59 % 100 % 1019,7 hPa 0,0 l/m 5,2 km/h (1 Bft) 2 min 4,8 km/h (1 Bft)
13.06.2010 11:46 19,9 C 16,5 C 11,0 UV-I 5,9 C 50 % 59 % 100 % 1019,7 hPa 0,0 l/m 4,4 km/h (1 Bft) 2 min 7,1 km/h (2 Bft)
13.06.2010 11:50 19,9 C 16,5 C 11,0 UV-I 6,4 C 50 % 58 % 100 % 1019,7 hPa 0,0 l/m 4,0 km/h (1 Bft) 2 min 0,0 km/h (0 Bft)
13.06.2010 11:52 19,9 C 16,4 C 10,0 UV-I 6,8 C 50 % 58 % 100 % 1019,7 hPa 0,0 l/m 3,2 km/h (1 Bft) 2 min 4,5 km/h (1 Bft)
13.06.2010 11:56 20,0 C 16,4 C 7,5 UV-I 5,7 C 50 % 59 % 100 % 1019,7 hPa 0,0 l/m 2,8 km/h (1 Bft) 2 min 5,5 km/h (1 Bft)
13.06.2010 11:58 20,0 C 16,4 C 7,5 UV-I 5,5 C 50 % 59 % 100 % 1019,7 hPa 0,0 l/m 2,0 km/h (1 Bft) 2 min 0,0 km/h (0 Bft)
13.06.2010 12:02 20,0 C 16,5 C 6,1 UV-I 4,9 C 50 % 59 % 100 % 1019,7 hPa 0,0 l/m 2,4 km/h (1 Bft) 2 min 5,1 km/h (1 Bft)
13.06.2010 12:04 20,0 C 16,5 C 6,1 UV-I 4,9 C 50 % 59 % 100 % 1019,7 hPa 0,0 l/m 2,4 km/h (1 Bft) 2 min 5,1 km/h (1 Bft)
13.06.2010 12:08 20,0 C 16,6 C 7,3 UV-I 4,2 C 50 % 59 % 100 % 1019,7 hPa 0,0 l/m 3,2 km/h (1 Bft) 2 min 3,9 km/h (1 Bft)
13.06.2010 12:10 20,0 C 16,6 C 7,3 UV-I 4,2 C 50 % 58 % 100 % 1019,7 hPa 0,0 l/m 3,2 km/h (1 Bft) 2 min 3,9 km/h (1 Bft)
13.06.2010 12:12 20,0 C 16,8 C 10,2 UV-I 5,2 C 50 % 59 % 100 % 1019,4 hPa 0,0 l/m 2,8 km/h (1 Bft) 2 min 0,0 km/h (0 Bft)
13.06.2010 12:14 20,0 C 16,9 C 10,2 UV-I 5,9 C 50 % 58 % 100 % 1019,4 hPa 0,0 l/m 2,0 km/h (1 Bft) 2 min 0,0 km/h (0 Bft)
13.06.2010 12:16 20,0 C 17,1 C 11,2 UV-I 6,3 C 50 % 58 % 100 % 1019,4 hPa 0,0 l/m 1,6 km/h (1 Bft) 2 min 7,7 km/h (2 Bft)
13.06.2010 12:18 20,0 C 17,3 C 11,2 UV-I 6,6 C 50 % 58 % 100 % 1019,4 hPa 0,0 l/m 2,0 km/h (1 Bft) 2 min 5,8 km/h (2 Bft)
13.06.2010 12:22 20,1 C 17,5 C 11,0 UV-I 6,7 C 50 % 57 % 100 % 1019,4 hPa 0,0 l/m 2,8 km/h (1 Bft) 2 min 3,9 km/h (1 Bft)
13.06.2010 12:36 20,2 C 17,5 C 8,3 UV-I 6,5 C 50 % 57 % 100 % 1019,3 hPa 0,0 l/m 3,2 km/h (1 Bft) 2 min 6,8 km/h (2 Bft)
13.06.2010 12:38 20,2 C 17,6 C 8,3 UV-I 5,9 C 50 % 57 % 100 % 1019,3 hPa 0,0 l/m 2,8 km/h (1 Bft) 2 min 0,0 km/h (0 Bft)
13.06.2010 12:40 20,2 C 17,6 C 8,3 UV-I 5,7 C 50 % 57 % 100 % 1019,3 hPa 0,0 l/m 2,8 km/h (1 Bft) 2 min 5,5 km/h (1 Bft)
13.06.2010 12:42 20,3 C 17,6 C 9,6 UV-I 5,9 C 50 % 56 % 100 % 1019,3 hPa 0,0 l/m 3,2 km/h (1 Bft) 2 min 4,2 km/h (1 Bft)
13.06.2010 12:50 20,2 C 17,9 C 9,6 UV-I 6,1 C 50 % 57 % 100 % 1019,3 hPa 0,0 l/m 3,2 km/h (1 Bft) 2 min 7,4 km/h (2 Bft)
13.06.2010 12:52 20,4 C 18,0 C 9,4 UV-I 5,9 C 50 % 58 % 100 % 1019,2 hPa 0,0 l/m 3,2 km/h (1 Bft) 2 min 4,8 km/h (1 Bft)
13.06.2010 12:54 20,4 C 18,0 C 9,4 UV-I 6,0 C 50 % 57 % 100 % 1019,2 hPa 0,0 l/m 3,6 km/h (1 Bft) 2 min 9,3 km/h (2 Bft)
13.06.2010 12:56 20,4 C 18,0 C 8,9 UV-I 6,1 C 50 % 56 % 100 % 1019,2 hPa 0,0 l/m 3,6 km/h (1 Bft) 2 min 0,0 km/h (0 Bft)
13.06.2010 12:58 20,4 C 17,9 C 8,9 UV-I 5,9 C 50 % 56 % 100 % 1019,2 hPa 0,0 l/m 2,8 km/h (1 Bft) 2 min 3,5 km/h (1 Bft)
13.06.2010 13:00 20,4 C 18,0 C 8,9 UV-I 5,4 C 50 % 56 % 100 % 1019,2 hPa 0,0 l/m 2,4 km/h (1 Bft) 2 min 3,2 km/h (1 Bft)
13.06.2010 13:02 20,4 C 18,1 C 9,3 UV-I 5,3 C 50 % 56 % 100 % 1019,2 hPa 0,0 l/m 2,8 km/h (1 Bft) 2 min 0,0 km/h (0 Bft)
13.06.2010 13:04 20,4 C 18,1 C 9,3 UV-I 5,8 C 50 % 57 % 100 % 1019,2 hPa 0,0 l/m 2,0 km/h (1 Bft) 2 min 4,2 km/h (1 Bft)
13.06.2010 13:06 20,5 C 18,3 C 10,2 UV-I 6,0 C 50 % 55 % 100 % 1019,2 hPa 0,0 l/m 1,6 km/h (1 Bft) 2 min 3,2 km/h (1 Bft)
13.06.2010 13:08 20,5 C 18,2 C 10,2 UV-I 6,6 C 50 % 54 % 100 % 1019,2 hPa 0,0 l/m 2,4 km/h (1 Bft) 2 min 7,4 km/h (2 Bft)
13.06.2010 13:10 20,5 C 18,1 C 10,2 UV-I 6,7 C 51 % 55 % 100 % 1019,2 hPa 0,0 l/m 2,4 km/h (1 Bft) 2 min 7,4 km/h (2 Bft)
13.06.2010 13:12 20,5 C 18,3 C 10,3 UV-I 6,7 C 51 % 55 % 100 % 1018,9 hPa 0,0 l/m 3,2 km/h (1 Bft) 2 min 11,3 km/h (2 Bft)
13.06.2010 13:14 20,6 C 18,1 C 10,3 UV-I 6,9 C 51 % 55 % 100 % 1018,9 hPa 0,0 l/m 5,2 km/h (1 Bft) 2 min 0,0 km/h (0 Bft)
13.06.2010 13:16 20,6 C 18,2 C 10,5 UV-I 6,9 C 51 % 56 % 100 % 1018,9 hPa 0,0 l/m 4,4 km/h (1 Bft) 2 min 0,0 km/h (0 Bft)
13.06.2010 13:20 20,6 C 18,4 C 10,5 UV-I 7,3 C 51 % 54 % 100 % 1018,9 hPa 0,0 l/m 4,0 km/h (1 Bft) 2 min 6,8 km/h (2 Bft)
13.06.2010 13:23 20,7 C 18,6 C 10,0 UV-I 6,9 C 51 % 55 % 100 % 1018,9 hPa 0,0 l/m 2,4 km/h (1 Bft) 2 min 0,0 km/h (0 Bft)
13.06.2010 13:27 20,8 C 18,9 C 10,9 UV-I 7,0 C 51 % 52 % 100 % 1018,9 hPa 0,0 l/m 4,0 km/h (1 Bft) 2 min 9,3 km/h (2 Bft)
13.06.2010 13:28 20,8 C 18,9 C 10,9 UV-I 7,0 C 51 % 52 % 100 % 1018,9 hPa 0,0 l/m 4,0 km/h (1 Bft) 1 min 9,3 km/h (2 Bft)
13.06.2010 13:32 20,8 C 18,8 C 10,4 UV-I 6,7 C 50 % 53 % 100 % 1019,2 hPa 0,0 l/m 6,4 km/h (2 Bft) 2 min 14,2 km/h (3 Bft)
13.06.2010 13:34 20,8 C 18,8 C 10,4 UV-I 6,7 C 50 % 53 % 100 % 1019,2 hPa 0,0 l/m 6,4 km/h (2 Bft) 2 min 14,2 km/h (3 Bft)
13.06.2010 13:36 20,8 C 18,9 C 10,1 UV-I 6,4 C 50 % 54 % 100 % 1019,2 hPa 0,0 l/m 6,8 km/h (2 Bft) 2 min 3,9 km/h (1 Bft)
13.06.2010 13:38 20,8 C 18,9 C 10,1 UV-I 6,3 C 50 % 54 % 100 % 1019,2 hPa 0,0 l/m 5,6 km/h (1 Bft) 2 min 5,1 km/h (1 Bft)
13.06.2010 13:40 20,9 C 19,1 C 10,1 UV-I 6,3 C 50 % 53 % 100 % 1019,2 hPa 0,0 l/m 4,8 km/h (1 Bft) 2 min 8,4 km/h (2 Bft)
13.06.2010 13:42 20,9 C 19,2 C 10,4 UV-I 6,2 C 50 % 52 % 100 % 1019,2 hPa 0,0 l/m 4,4 km/h (1 Bft) 2 min 5,1 km/h (1 Bft)
13.06.2010 13:44 21,0 C 19,3 C 10,4 UV-I 6,1 C 50 % 53 % 100 % 1019,2 hPa 0,0 l/m 4,0 km/h (1 Bft) 2 min 0,0 km/h (0 Bft)
13.06.2010 13:46 21,0 C 19,3 C 10,8 UV-I 6,4 C 50 % 51 % 100 % 1019,2 hPa 0,0 l/m 3,2 km/h (1 Bft) 2 min 10,3 km/h (2 Bft)
13.06.2010 13:48 21,0 C 19,3 C 10,8 UV-I 6,6 C 50 % 52 % 100 % 1019,2 hPa 0,0 l/m 4,0 km/h (1 Bft) 2 min 9,3 km/h (2 Bft)
13.06.2010 13:50 21,1 C 19,3 C 10,8 UV-I 6,6 C 50 % 50 % 100 % 1019,2 hPa 0,0 l/m 4,0 km/h (1 Bft) 2 min 9,3 km/h (2 Bft)
13.06.2010 13:52 21,1 C 19,2 C 10,9 UV-I 6,9 C 50 % 51 % 100 % 1019,1 hPa 0,0 l/m 6,0 km/h (2 Bft) 2 min 7,7 km/h (2 Bft)
13.06.2010 13:54 21,2 C 19,2 C 10,9 UV-I 6,7 C 50 % 51 % 100 % 1019,1 hPa 0,0 l/m 5,6 km/h (1 Bft) 2 min 4,8 km/h (1 Bft)
13.06.2010 13:56 21,2 C 19,2 C 9,9 UV-I 6,4 C 50 % 51 % 100 % 1019,1 hPa 0,0 l/m 6,0 km/h (2 Bft) 2 min 4,8 km/h (1 Bft)
13.06.2010 13:58 21,2 C 19,2 C 9,9 UV-I 6,2 C 50 % 49 % 100 % 1019,1 hPa 0,0 l/m 6,4 km/h (2 Bft) 2 min 8,4 km/h (2 Bft)
13.06.2010 14:00 21,2 C 19,1 C 9,9 UV-I 6,3 C 50 % 49 % 100 % 1019,1 hPa 0,0 l/m 5,6 km/h (1 Bft) 2 min 6,8 km/h (2 Bft)
13.06.2010 14:02 21,2 C 19,1 C 10,5 UV-I 6,3 C 49 % 50 % 100 % 1019,1 hPa 0,0 l/m 4,8 km/h (1 Bft) 2 min 3,9 km/h (1 Bft)
13.06.2010 14:04 21,2 C 19,1 C 10,5 UV-I 6,3 C 49 % 51 % 100 % 1019,1 hPa 0,0 l/m 4,0 km/h (1 Bft) 2 min 0,0 km/h (0 Bft)
13.06.2010 14:06 21,2 C 19,1 C 8,9 UV-I 6,1 C 49 % 51 % 100 % 1019,1 hPa 0,0 l/m 4,8 km/h (1 Bft) 2 min 12,2 km/h (2 Bft)
13.06.2010 14:08 21,4 C 18,9 C 8,9 UV-I 5,8 C 49 % 51 % 100 % 1019,1 hPa 0,0 l/m 4,4 km/h (1 Bft) 2 min 6,8 km/h (2 Bft)
13.06.2010 14:10 21,4 C 18,9 C 8,9 UV-I 5,8 C 49 % 51 % 100 % 1019,1 hPa 0,0 l/m 4,4 km/h (1 Bft) 2 min 6,8 km/h (2 Bft)
13.06.2010 14:12 21,4 C 18,8 C 8,7 UV-I 5,0 C 49 % 51 % 100 % 1019,2 hPa 0,0 l/m 2,8 km/h (1 Bft) 2 min 0,0 km/h (0 Bft)
13.06.2010 14:14 21,4 C 18,8 C 8,7 UV-I 4,8 C 49 % 51 % 100 % 1019,2 hPa 0,0 l/m 3,2 km/h (1 Bft) 2 min 0,0 km/h (0 Bft)
13.06.2010 14:16 21,5 C 18,8 C 10,4 UV-I 5,0 C 49 % 51 % 100 % 1019,2 hPa 0,0 l/m 3,2 km/h (1 Bft) 2 min 0,0 km/h (0 Bft)
13.06.2010 14:18 21,5 C 19,1 C 10,4 UV-I 5,1 C 48 % 52 % 100 % 1019,2 hPa 0,0 l/m 2,8 km/h (1 Bft) 2 min 4,2 km/h (1 Bft)
13.06.2010 14:20 21,6 C 19,1 C 10,4 UV-I 5,6 C 48 % 52 % 100 % 1019,2 hPa 0,0 l/m 2,4 km/h (1 Bft) 2 min 7,7 km/h (2 Bft)
13.06.2010 14:22 21,6 C 19,3 C 10,0 UV-I 5,6 C 48 % 52 % 100 % 1019,2 hPa 0,0 l/m 2,8 km/h (1 Bft) 2 min 3,9 km/h (1 Bft)
13.06.2010 14:24 21,6 C 19,3 C 10,0 UV-I 5,6 C 48 % 52 % 100 % 1019,2 hPa 0,0 l/m 2,8 km/h (1 Bft) 2 min 4,5 km/h (1 Bft)
13.06.2010 14:26 21,7 C 19,5 C 11,1 UV-I 5,8 C 48 % 51 % 100 % 1019,2 hPa 0,0 l/m 3,2 km/h (1 Bft) 2 min 5,8 km/h (2 Bft)
13.06.2010 14:28 21,8 C 19,7 C 11,1 UV-I 5,8 C 48 % 50 % 100 % 1019,2 hPa 0,0 l/m 3,2 km/h (1 Bft) 2 min 4,5 km/h (1 Bft)
13.06.2010 14:32 21,9 C 19,8 C 11,1 UV-I 6,4 C 48 % 49 % 100 % 1019,2 hPa 0,0 l/m 3,2 km/h (1 Bft) 2 min 4,5 km/h (1 Bft)
13.06.2010 14:34 22,0 C 19,8 C 11,1 UV-I 6,6 C 48 % 49 % 100 % 1019,2 hPa 0,0 l/m 3,6 km/h (1 Bft) 2 min 10,3 km/h (2 Bft)
13.06.2010 14:36 22,0 C 19,9 C 10,0 UV-I 6,5 C 48 % 51 % 100 % 1019,2 hPa 0,0 l/m 3,6 km/h (1 Bft) 2 min 0,0 km/h (0 Bft)
13.06.2010 14:38 22,0 C 20,0 C 10,0 UV-I 6,3 C 47 % 49 % 100 % 1019,2 hPa 0,0 l/m 3,2 km/h (1 Bft) 2 min 0,0 km/h (0 Bft)
13.06.2010 14:40 22,1 C 20,0 C 10,0 UV-I 6,3 C 47 % 49 % 100 % 1019,2 hPa 0,0 l/m 3,2 km/h (1 Bft) 2 min 4,2 km/h (1 Bft)
13.06.2010 14:42 22,1 C 20,0 C 10,4 UV-I 6,3 C 47 % 49 % 100 % 1019,2 hPa 0,0 l/m 2,4 km/h (1 Bft) 2 min 4,8 km/h (1 Bft)
13.06.2010 14:44 22,2 C 20,0 C 10,4 UV-I 6,3 C 47 % 49 % 100 % 1019,2 hPa 0,0 l/m 3,2 km/h (1 Bft) 2 min 6,1 km/h (2 Bft)
13.06.2010 14:46 22,2 C 20,0 C 10,7 UV-I 6,2 C 46 % 52 % 100 % 1019,2 hPa 0,0 l/m 3,2 km/h (1 Bft) 2 min 5,8 km/h (2 Bft)
13.06.2010 14:48 22,3 C 20,1 C 10,7 UV-I 6,1 C 46 % 50 % 100 % 1019,2 hPa 0,0 l/m 4,0 km/h (1 Bft) 2 min 12,9 km/h (3 Bft)
13.06.2010 14:50 22,4 C 20,1 C 10,7 UV-I 6,1 C 46 % 49 % 100 % 1019,2 hPa 0,0 l/m 4,0 km/h (1 Bft) 2 min 12,9 km/h (3 Bft)
13.06.2010 14:52 22,4 C 20,1 C 10,7 UV-I 6,1 C 46 % 49 % 100 % 1018,9 hPa 0,0 l/m 5,6 km/h (1 Bft) 2 min 6,1 km/h (2 Bft)
13.06.2010 14:54 22,5 C 20,0 C 10,7 UV-I 6,3 C 46 % 48 % 100 % 1018,9 hPa 0,0 l/m 6,8 km/h (2 Bft) 2 min 14,5 km/h (3 Bft)
13.06.2010 14:56 22,5 C 20,0 C 11,3 UV-I 6,3 C 46 % 49 % 100 % 1018,9 hPa 0,0 l/m 7,2 km/h (2 Bft) 2 min 5,1 km/h (1 Bft)
13.06.2010 14:58 22,6 C 20,0 C 11,3 UV-I 6,4 C 46 % 49 % 100 % 1018,9 hPa 0,0 l/m 6,8 km/h (2 Bft) 2 min 5,8 km/h (2 Bft)
13.06.2010 15:00 22,6 C 20,1 C 11,3 UV-I 6,5 C 46 % 47 % 100 % 1018,9 hPa 0,0 l/m 6,4 km/h (2 Bft) 2 min 6,4 km/h (2 Bft)
13.06.2010 15:02 22,7 C 20,0 C 10,7 UV-I 6,6 C 46 % 49 % 100 % 1018,9 hPa 0,0 l/m 6,8 km/h (2 Bft) 2 min 10,3 km/h (2 Bft)
13.06.2010 15:04 22,8 C 20,0 C 10,7 UV-I 6,5 C 46 % 48 % 100 % 1018,9 hPa 0,0 l/m 7,2 km/h (2 Bft) 2 min 12,9 km/h (3 Bft)
13.06.2010 15:06 22,8 C 20,0 C 10,6 UV-I 6,3 C 46 % 47 % 100 % 1018,9 hPa 0,0 l/m 7,6 km/h (2 Bft) 2 min 8,0 km/h (2 Bft)
13.06.2010 15:08 22,8 C 19,9 C 10,6 UV-I 6,1 C 46 % 49 % 100 % 1018,9 hPa 0,0 l/m 7,2 km/h (2 Bft) 2 min 0,0 km/h (0 Bft)
13.06.2010 15:10 22,9 C 19,8 C 10,6 UV-I 6,2 C 46 % 48 % 100 % 1018,9 hPa 0,0 l/m 7,2 km/h (2 Bft) 2 min 25,1 km/h (4 Bft)
13.06.2010 15:12 22,9 C 19,9 C 10,7 UV-I 6,1 C 46 % 47 % 100 % 1019,7 hPa 0,0 l/m 7,2 km/h (2 Bft) 2 min 9,3 km/h (2 Bft)
13.06.2010 15:14 23,0 C 19,9 C 10,7 UV-I 6,1 C 46 % 48 % 100 % 1019,7 hPa 0,0 l/m 7,6 km/h (2 Bft) 2 min 12,2 km/h (2 Bft)
13.06.2010 15:16 23,0 C 19,9 C 10,9 UV-I 6,1 C 46 % 47 % 100 % 1019,7 hPa 0,0 l/m 7,2 km/h (2 Bft) 2 min 8,0 km/h (2 Bft)
13.06.2010 15:18 23,1 C 19,9 C 10,9 UV-I 6,0 C 46 % 47 % 100 % 1019,7 hPa 0,0 l/m 7,6 km/h (2 Bft) 2 min 6,4 km/h (2 Bft)
13.06.2010 15:20 23,2 C 19,9 C 10,9 UV-I 5,9 C 46 % 49 % 100 % 1019,7 hPa 0,0 l/m 8,4 km/h (2 Bft) 2 min 9,3 km/h (2 Bft)
13.06.2010 15:22 23,2 C 19,7 C 10,4 UV-I 5,9 C 46 % 48 % 100 % 1019,7 hPa 0,0 l/m 9,6 km/h (2 Bft) 2 min 3,9 km/h (1 Bft)
13.06.2010 15:24 23,3 C 19,7 C 10,4 UV-I 5,7 C 45 % 47 % 100 % 1019,7 hPa 0,0 l/m 10,4 km/h (2 Bft) 2 min 19,3 km/h (3 Bft)
13.06.2010 15:26 23,2 C 19,6 C 10,1 UV-I 5,5 C 45 % 48 % 100 % 1019,7 hPa 0,0 l/m 9,2 km/h (2 Bft) 2 min 5,8 km/h (2 Bft)
13.06.2010 15:28 23,4 C 19,7 C 10,1 UV-I 5,3 C 45 % 48 % 100 % 1019,7 hPa 0,0 l/m 8,4 km/h (2 Bft) 2 min 7,1 km/h (2 Bft)
13.06.2010 15:30 23,4 C 19,7 C 10,1 UV-I 5,3 C 45 % 49 % 100 % 1019,7 hPa 0,0 l/m 8,4 km/h (2 Bft) 2 min 7,1 km/h (2 Bft)
13.06.2010 15:32 23,5 C 19,9 C 10,5 UV-I 5,1 C 45 % 48 % 100 % 1019,8 hPa 0,0 l/m 7,6 km/h (2 Bft) 2 min 8,0 km/h (2 Bft)
13.06.2010 15:34 23,5 C 19,9 C 10,5 UV-I 5,3 C 45 % 48 % 100 % 1019,8 hPa 0,0 l/m 7,6 km/h (2 Bft) 2 min 3,5 km/h (1 Bft)
13.06.2010 15:38 23,7 C 19,9 C 10,4 UV-I 5,5 C 44 % 48 % 100 % 1019,8 hPa 0,0 l/m 8,0 km/h (2 Bft) 2 min 10,0 km/h (2 Bft)
13.06.2010 15:40 23,7 C 19,9 C 10,4 UV-I 5,5 C 44 % 47 % 100 % 1019,8 hPa 0,0 l/m 7,6 km/h (2 Bft) 2 min 0,0 km/h (0 Bft)
13.06.2010 15:42 23,8 C 19,9 C 10,9 UV-I 5,5 C 44 % 48 % 100 % 1019,8 hPa 0,0 l/m 6,0 km/h (2 Bft) 2 min 0,0 km/h (0 Bft)
13.06.2010 15:44 23,8 C 19,8 C 10,9 UV-I 5,9 C 44 % 48 % 100 % 1019,8 hPa 0,0 l/m 4,8 km/h (1 Bft) 2 min 3,9 km/h (1 Bft)
13.06.2010 15:46 23,9 C 20,0 C 9,8 UV-I 5,8 C 44 % 48 % 100 % 1019,8 hPa 0,0 l/m 4,4 km/h (1 Bft) 2 min 8,4 km/h (2 Bft)
13.06.2010 15:48 23,9 C 20,1 C 9,8 UV-I 5,8 C 44 % 48 % 100 % 1019,8 hPa 0,0 l/m 4,0 km/h (1 Bft) 2 min 11,6 km/h (2 Bft)
13.06.2010 15:50 24,0 C 20,2 C 9,8 UV-I 5,7 C 44 % 47 % 100 % 1019,8 hPa 0,0 l/m 4,0 km/h (1 Bft) 2 min 11,6 km/h (2 Bft)
13.06.2010 15:52 24,0 C 20,0 C 9,5 UV-I 5,7 C 43 % 47 % 100 % 1020,2 hPa 0,0 l/m 4,8 km/h (1 Bft) 2 min 9,7 km/h (2 Bft)
13.06.2010 15:54 24,0 C 19,9 C 9,5 UV-I 5,5 C 43 % 46 % 100 % 1020,2 hPa 0,0 l/m 6,4 km/h (2 Bft) 2 min 4,5 km/h (1 Bft)
13.06.2010 15:56 24,0 C 19,6 C 10,0 UV-I 5,6 C 43 % 47 % 100 % 1020,2 hPa 0,0 l/m 6,4 km/h (2 Bft) 2 min 3,2 km/h (1 Bft)
13.06.2010 15:58 24,1 C 19,6 C 10,0 UV-I 5,6 C 43 % 48 % 100 % 1020,2 hPa 0,0 l/m 6,0 km/h (2 Bft) 2 min 4,2 km/h (1 Bft)
13.06.2010 16:00 24,1 C 19,7 C 10,0 UV-I 5,7 C 43 % 47 % 100 % 1020,2 hPa 0,0 l/m 6,8 km/h (2 Bft) 2 min 12,6 km/h (3 Bft)
13.06.2010 16:02 24,2 C 19,6 C 10,0 UV-I 5,8 C 43 % 47 % 100 % 1020,2 hPa 0,0 l/m 6,8 km/h (2 Bft) 2 min 4,5 km/h (1 Bft)
13.06.2010 16:04 24,2 C 19,6 C 10,0 UV-I 5,6 C 43 % 48 % 100 % 1020,2 hPa 0,0 l/m 4,8 km/h (1 Bft) 2 min 0,0 km/h (0 Bft)
13.06.2010 16:06 24,2 C 19,7 C 10,0 UV-I 5,7 C 43 % 49 % 100 % 1020,2 hPa 0,0 l/m 4,8 km/h (1 Bft) 2 min 7,1 km/h (2 Bft)
13.06.2010 16:08 24,3 C 19,9 C 10,0 UV-I 5,7 C 42 % 49 % 100 % 1020,2 hPa 0,0 l/m 5,6 km/h (1 Bft) 2 min 7,7 km/h (2 Bft)
13.06.2010 16:10 24,2 C 19,9 C 10,0 UV-I 5,7 C 42 % 50 % 100 % 1020,2 hPa 0,0 l/m 5,6 km/h (1 Bft) 2 min 7,7 km/h (2 Bft)
13.06.2010 16:12 24,2 C 19,9 C 8,1 UV-I 5,3 C 43 % 49 % 100 % 1020,0 hPa 0,0 l/m 4,4 km/h (1 Bft) 2 min 6,8 km/h (2 Bft)
13.06.2010 16:14 24,3 C 19,8 C 8,1 UV-I 5,0 C 43 % 48 % 100 % 1020,0 hPa 0,0 l/m 5,6 km/h (1 Bft) 2 min 5,1 km/h (1 Bft)
13.06.2010 16:16 24,3 C 19,9 C 8,2 UV-I 4,5 C 42 % 49 % 100 % 1020,0 hPa 0,0 l/m 6,0 km/h (2 Bft) 2 min 8,4 km/h (2 Bft)
13.06.2010 16:18 24,3 C 19,8 C 8,2 UV-I 4,4 C 42 % 48 % 100 % 1020,0 hPa 0,0 l/m 7,2 km/h (2 Bft) 2 min 14,5 km/h (3 Bft)
13.06.2010 16:20 24,3 C 19,7 C 8,2 UV-I 4,3 C 42 % 50 % 100 % 1020,0 hPa 0,0 l/m 7,2 km/h (2 Bft) 2 min 6,8 km/h (2 Bft)
13.06.2010 16:22 24,3 C 19,6 C 8,6 UV-I 4,3 C 42 % 49 % 100 % 1020,0 hPa 0,0 l/m 7,2 km/h (2 Bft) 2 min 7,4 km/h (2 Bft)
13.06.2010 16:24 24,3 C 19,7 C 8,6 UV-I 4,1 C 42 % 50 % 100 % 1020,0 hPa 0,0 l/m 6,8 km/h (2 Bft) 2 min 3,2 km/h (1 Bft)
13.06.2010 16:26 24,3 C 19,6 C 9,2 UV-I 4,2 C 42 % 49 % 100 % 1020,0 hPa 0,0 l/m 9,2 km/h (2 Bft) 2 min 21,9 km/h (4 Bft)
13.06.2010 16:28 24,3 C 19,7 C 9,2 UV-I 4,1 C 42 % 50 % 100 % 1020,0 hPa 0,0 l/m 9,2 km/h (2 Bft) 2 min 0,0 km/h (0 Bft)
13.06.2010 16:30 24,2 C 19,6 C 9,2 UV-I 4,2 C 42 % 49 % 100 % 1020,0 hPa 0,0 l/m 9,2 km/h (2 Bft) 2 min 0,0 km/h (0 Bft)
13.06.2010 16:32 24,4 C 19,7 C 8,1 UV-I 4,0 C 42 % 49 % 100 % 1019,1 hPa 0,0 l/m 9,2 km/h (2 Bft) 2 min 6,1 km/h (2 Bft)
13.06.2010 16:34 24,2 C 19,5 C 8,1 UV-I 3,9 C 42 % 49 % 100 % 1019,1 hPa 0,0 l/m 9,2 km/h (2 Bft) 2 min 8,4 km/h (2 Bft)
13.06.2010 16:36 24,3 C 19,3 C 6,7 UV-I 3,8 C 42 % 50 % 100 % 1019,1 hPa 0,0 l/m 8,8 km/h (2 Bft) 2 min 7,7 km/h (2 Bft)
13.06.2010 16:38 24,3 C 19,3 C 6,7 UV-I 3,4 C 42 % 50 % 97 % 1019,1 hPa 0,0 l/m 6,4 km/h (2 Bft) 2 min 10,3 km/h (2 Bft)
13.06.2010 16:40 24,3 C 19,5 C 6,7 UV-I 3,1 C 42 % 49 % 89 % 1019,1 hPa 0,0 l/m 7,6 km/h (2 Bft) 2 min 6,4 km/h (2 Bft)
13.06.2010 16:42 24,3 C 19,4 C 8,2 UV-I 3,3 C 42 % 49 % 94 % 1019,1 hPa 0,0 l/m 6,0 km/h (2 Bft) 2 min 7,1 km/h (2 Bft)
13.06.2010 16:44 24,2 C 19,4 C 8,2 UV-I 3,6 C 42 % 50 % 100 % 1019,1 hPa 0,0 l/m 5,6 km/h (1 Bft) 2 min 6,8 km/h (2 Bft)
13.06.2010 16:46 24,3 C 19,4 C 9,2 UV-I 3,8 C 42 % 49 % 100 % 1019,1 hPa 0,0 l/m 6,4 km/h (2 Bft) 2 min 11,3 km/h (2 Bft)
13.06.2010 16:48 24,3 C 19,5 C 9,2 UV-I 3,9 C 42 % 49 % 100 % 1019,1 hPa 0,0 l/m 7,2 km/h (2 Bft) 2 min 11,6 km/h (2 Bft)
13.06.2010 16:52 24,3 C 19,5 C 8,9 UV-I 3,9 C 42 % 49 % 100 % 1019,2 hPa 0,0 l/m 7,6 km/h (2 Bft) 2 min 11,6 km/h (2 Bft)
13.06.2010 16:54 24,3 C 19,3 C 8,9 UV-I 4,1 C 42 % 50 % 100 % 1019,2 hPa 0,0 l/m 8,0 km/h (2 Bft) 2 min 12,2 km/h (2 Bft)
13.06.2010 16:56 24,3 C 19,3 C 8,9 UV-I 4,1 C 42 % 50 % 100 % 1019,2 hPa 0,0 l/m 7,6 km/h (2 Bft) 2 min 5,1 km/h (1 Bft)
13.06.2010 16:58 24,3 C 19,5 C 8,9 UV-I 3,9 C 42 % 51 % 100 % 1019,2 hPa 0,0 l/m 6,0 km/h (2 Bft) 2 min 3,2 km/h (1 Bft)
13.06.2010 17:00 24,3 C 19,5 C 8,9 UV-I 4,0 C 42 % 51 % 100 % 1019,2 hPa 0,0 l/m 4,8 km/h (1 Bft) 2 min 0,0 km/h (0 Bft)
13.06.2010 17:02 24,3 C 19,5 C 6,9 UV-I 3,9 C 42 % 51 % 100 % 1019,2 hPa 0,0 l/m 4,8 km/h (1 Bft) 2 min 3,9 km/h (1 Bft)
13.06.2010 17:04 24,2 C 19,5 C 6,9 UV-I 3,8 C 42 % 50 % 100 % 1019,2 hPa 0,0 l/m 5,2 km/h (1 Bft) 2 min 10,6 km/h (2 Bft)
13.06.2010 17:06 24,2 C 19,2 C 6,4 UV-I 3,8 C 42 % 50 % 100 % 1019,2 hPa 0,0 l/m 5,6 km/h (1 Bft) 2 min 4,5 km/h (1 Bft)
13.06.2010 17:10 24,2 C 19,3 C 6,4 UV-I 3,5 C 42 % 50 % 100 % 1019,2 hPa 0,0 l/m 5,2 km/h (1 Bft) 2 min 3,5 km/h (1 Bft)
13.06.2010 17:12 24,2 C 19,3 C 5,8 UV-I 3,1 C 42 % 50 % 89 % 1018,3 hPa 0,0 l/m 5,6 km/h (1 Bft) 2 min 4,5 km/h (1 Bft)
13.06.2010 17:16 24,1 C 19,1 C 5,6 UV-I 3,1 C 43 % 50 % 89 % 1018,3 hPa 0,0 l/m 4,8 km/h (1 Bft) 2 min 8,0 km/h (2 Bft)
13.06.2010 17:18 24,1 C 19,1 C 5,6 UV-I 2,8 C 43 % 50 % 80 % 1018,3 hPa 0,0 l/m 4,0 km/h (1 Bft) 0 min 5,8 km/h (2 Bft)
13.06.2010 17:20 24,1 C 19,1 C 5,6 UV-I 2,7 C 43 % 50 % 77 % 1018,3 hPa 0,0 l/m 4,8 km/h (1 Bft) 0 min 4,5 km/h (1 Bft)
13.06.2010 17:22 24,0 C 18,9 C 5,2 UV-I 2,7 C 43 % 50 % 77 % 1018,3 hPa 0,0 l/m 5,2 km/h (1 Bft) 0 min 10,6 km/h (2 Bft)
13.06.2010 17:30 24,0 C 18,8 C 5,3 UV-I 2,3 C 43 % 50 % 66 % 1018,3 hPa 0,0 l/m 7,2 km/h (2 Bft) 0 min 10,9 km/h (2 Bft)
13.06.2010 17:32 23,9 C 18,7 C 5,1 UV-I 2,3 C 43 % 50 % 66 % 1017,7 hPa 0,0 l/m 7,2 km/h (2 Bft) 0 min 7,4 km/h (2 Bft)
13.06.2010 17:34 23,9 C 18,7 C 5,1 UV-I 2,2 C 43 % 51 % 63 % 1017,7 hPa 0,0 l/m 6,0 km/h (2 Bft) 0 min 5,8 km/h (2 Bft)
13.06.2010 17:36 23,9 C 18,7 C 4,9 UV-I 2,1 C 43 % 52 % 60 % 1017,7 hPa 0,0 l/m 5,2 km/h (1 Bft) 0 min 3,5 km/h (1 Bft)
13.06.2010 17:38 23,8 C 18,7 C 4,9 UV-I 2,2 C 43 % 51 % 63 % 1017,7 hPa 0,0 l/m 5,6 km/h (1 Bft) 0 min 7,1 km/h (2 Bft)
13.06.2010 17:40 23,8 C 18,7 C 4,9 UV-I 2,1 C 43 % 51 % 60 % 1017,7 hPa 0,0 l/m 4,8 km/h (1 Bft) 0 min 0,0 km/h (0 Bft)
13.06.2010 17:42 23,8 C 18,6 C 4,7 UV-I 2,2 C 43 % 51 % 63 % 1017,7 hPa 0,0 l/m 4,4 km/h (1 Bft) 0 min 0,0 km/h (0 Bft)
13.06.2010 17:44 23,8 C 18,6 C 4,7 UV-I 2,2 C 43 % 52 % 63 % 1017,7 hPa 0,0 l/m 3,6 km/h (1 Bft) 0 min 0,0 km/h (0 Bft)
13.06.2010 17:46 23,7 C 18,7 C 4,6 UV-I 2,2 C 43 % 52 % 63 % 1017,7 hPa 0,0 l/m 3,6 km/h (1 Bft) 0 min 5,5 km/h (1 Bft)
13.06.2010 17:48 23,7 C 18,7 C 4,6 UV-I 2,2 C 43 % 52 % 63 % 1017,7 hPa 0,0 l/m 4,0 km/h (1 Bft) 0 min 5,8 km/h (2 Bft)
13.06.2010 17:50 23,7 C 18,7 C 4,6 UV-I 2,2 C 43 % 52 % 63 % 1017,7 hPa 0,0 l/m 4,0 km/h (1 Bft) 0 min 5,8 km/h (2 Bft)
13.06.2010 17:54 23,6 C 18,7 C 4,5 UV-I 2,0 C 43 % 52 % 57 % 1017,3 hPa 0,0 l/m 4,0 km/h (1 Bft) 0 min 3,2 km/h (1 Bft)
13.06.2010 17:56 23,6 C 18,7 C 4,2 UV-I 2,0 C 43 % 52 % 57 % 1017,3 hPa 0,0 l/m 3,2 km/h (1 Bft) 0 min 0,0 km/h (0 Bft)
13.06.2010 17:58 23,6 C 18,8 C 4,2 UV-I 1,9 C 43 % 52 % 54 % 1017,3 hPa 0,0 l/m 2,8 km/h (1 Bft) 0 min 3,5 km/h (1 Bft)
13.06.2010 18:00 23,6 C 18,8 C 4,2 UV-I 2,0 C 43 % 52 % 57 % 1017,3 hPa 0,0 l/m 2,8 km/h (1 Bft) 0 min 5,5 km/h (1 Bft)
13.06.2010 18:02 23,6 C 18,7 C 4,1 UV-I 2,0 C 43 % 52 % 57 % 1017,3 hPa 0,0 l/m 2,4 km/h (1 Bft) 0 min 8,0 km/h (2 Bft)
13.06.2010 18:04 23,6 C 18,7 C 4,1 UV-I 2,0 C 43 % 52 % 57 % 1017,3 hPa 0,0 l/m 3,6 km/h (1 Bft) 0 min 8,4 km/h (2 Bft)
13.06.2010 18:06 23,6 C 18,7 C 4,1 UV-I 2,0 C 43 % 52 % 57 % 1017,3 hPa 0,0 l/m 4,4 km/h (1 Bft) 0 min 0,0 km/h (0 Bft)
13.06.2010 18:08 23,5 C 18,6 C 4,1 UV-I 2,0 C 43 % 52 % 57 % 1017,3 hPa 0,0 l/m 4,8 km/h (1 Bft) 0 min 4,2 km/h (1 Bft)
13.06.2010 18:12 23,5 C 18,7 C 3,9 UV-I 1,8 C 44 % 52 % 51 % 1017,1 hPa 0,0 l/m 6,0 km/h (2 Bft) 0 min 0,0 km/h (0 Bft)
13.06.2010 18:14 23,5 C 18,7 C 3,9 UV-I 1,8 C 44 % 53 % 51 % 1017,1 hPa 0,0 l/m 5,6 km/h (1 Bft) 0 min 3,2 km/h (1 Bft)
13.06.2010 18:16 23,4 C 18,6 C 3,7 UV-I 1,8 C 44 % 53 % 51 % 1017,1 hPa 0,0 l/m 4,4 km/h (1 Bft) 0 min 0,0 km/h (0 Bft)
13.06.2010 18:18 23,4 C 18,7 C 3,7 UV-I 1,7 C 44 % 53 % 49 % 1017,1 hPa 0,0 l/m 4,8 km/h (1 Bft) 0 min 5,1 km/h (1 Bft)
13.06.2010 18:20 23,4 C 18,7 C 3,7 UV-I 1,7 C 44 % 53 % 49 % 1017,1 hPa 0,0 l/m 5,2 km/h (1 Bft) 0 min 9,3 km/h (2 Bft)
13.06.2010 18:22 23,4 C 18,6 C 3,6 UV-I 1,7 C 44 % 52 % 49 % 1017,1 hPa 0,0 l/m 5,6 km/h (1 Bft) 0 min 7,1 km/h (2 Bft)
13.06.2010 18:24 23,4 C 18,7 C 3,6 UV-I 1,5 C 44 % 52 % 43 % 1017,1 hPa 0,0 l/m 6,0 km/h (2 Bft) 0 min 9,0 km/h (2 Bft)
13.06.2010 18:28 23,2 C 18,5 C 3,5 UV-I 1,5 C 44 % 52 % 43 % 1017,1 hPa 0,0 l/m 7,2 km/h (2 Bft) 0 min 5,5 km/h (1 Bft)
13.06.2010 18:30 23,3 C 18,5 C 3,5 UV-I 1,5 C 44 % 52 % 43 % 1017,1 hPa 0,0 l/m 7,2 km/h (2 Bft) 0 min 5,5 km/h (1 Bft)
13.06.2010 18:34 23,2 C 18,5 C 3,3 UV-I 1,2 C 44 % 53 % 34 % 1016,7 hPa 0,0 l/m 8,4 km/h (2 Bft) 0 min 18,0 km/h (3 Bft)
13.06.2010 18:36 23,2 C 18,4 C 3,1 UV-I 1,2 C 44 % 53 % 34 % 1016,7 hPa 0,0 l/m 9,2 km/h (2 Bft) 0 min 11,9 km/h (2 Bft)
13.06.2010 18:46 23,2 C 18,2 C 2,8 UV-I 0,8 C 44 % 54 % 23 % 1016,7 hPa 0,0 l/m 10,8 km/h (2 Bft) 0 min 15,1 km/h (3 Bft)
13.06.2010 18:48 23,2 C 18,1 C 2,8 UV-I 0,9 C 44 % 54 % 26 % 1016,7 hPa 0,0 l/m 11,2 km/h (2 Bft) 0 min 8,4 km/h (2 Bft)
13.06.2010 18:50 23,1 C 18,1 C 2,8 UV-I 0,9 C 44 % 54 % 26 % 1016,7 hPa 0,0 l/m 11,2 km/h (2 Bft) 0 min 8,4 km/h (2 Bft)
13.06.2010 18:52 23,1 C 18,1 C 2,6 UV-I 0,7 C 44 % 54 % 20 % 1016,6 hPa 0,0 l/m 10,8 km/h (2 Bft) 0 min 19,0 km/h (3 Bft)
13.06.2010 18:56 23,1 C 17,9 C 2,5 UV-I 0,6 C 45 % 55 % 17 % 1016,6 hPa 0,0 l/m 12,4 km/h (3 Bft) 0 min 14,2 km/h (3 Bft)
13.06.2010 18:58 23,0 C 17,9 C 2,5 UV-I 0,5 C 45 % 55 % 14 % 1016,6 hPa 0,0 l/m 12,4 km/h (3 Bft) 0 min 9,0 km/h (2 Bft)
13.06.2010 19:00 23,0 C 17,9 C 2,5 UV-I 0,4 C 45 % 55 % 11 % 1016,6 hPa 0,0 l/m 11,2 km/h (2 Bft) 0 min 8,7 km/h (2 Bft)
13.06.2010 19:02 23,0 C 17,9 C 2,4 UV-I 0,3 C 45 % 56 % 9 % 1016,6 hPa 0,0 l/m 11,2 km/h (2 Bft) 0 min 10,9 km/h (2 Bft)
13.06.2010 19:04 23,0 C 17,9 C 2,4 UV-I 0,3 C 45 % 55 % 9 % 1016,6 hPa 0,0 l/m 10,0 km/h (2 Bft) 0 min 10,9 km/h (2 Bft)
13.06.2010 19:06 23,0 C 17,7 C 2,4 UV-I 0,5 C 45 % 55 % 14 % 1016,6 hPa 0,0 l/m 10,0 km/h (2 Bft) 0 min 10,3 km/h (2 Bft)
13.06.2010 19:08 23,0 C 17,7 C 2,4 UV-I 0,4 C 45 % 55 % 11 % 1016,6 hPa 0,0 l/m 9,2 km/h (2 Bft) 0 min 8,4 km/h (2 Bft)
13.06.2010 19:10 23,0 C 17,6 C 2,4 UV-I 0,5 C 45 % 56 % 14 % 1016,6 hPa 0,0 l/m 9,2 km/h (2 Bft) 0 min 8,4 km/h (2 Bft)
13.06.2010 19:12 22,9 C 17,6 C 2,2 UV-I 0,4 C 45 % 56 % 11 % 1016,2 hPa 0,0 l/m 9,6 km/h (2 Bft) 0 min 10,6 km/h (2 Bft)
13.06.2010 19:14 22,9 C 17,7 C 2,2 UV-I 0,2 C 45 % 56 % 6 % 1016,2 hPa 0,0 l/m 10,0 km/h (2 Bft) 0 min 5,8 km/h (2 Bft)
13.06.2010 19:16 22,9 C 17,5 C 2,2 UV-I 0,3 C 45 % 56 % 9 % 1016,2 hPa 0,0 l/m 9,2 km/h (2 Bft) 0 min 7,4 km/h (2 Bft)
13.06.2010 19:18 22,9 C 17,5 C 2,2 UV-I 0,3 C 45 % 57 % 9 % 1016,2 hPa 0,0 l/m 7,6 km/h (2 Bft) 0 min 3,2 km/h (1 Bft)
13.06.2010 19:20 22,9 C 17,6 C 2,2 UV-I 0,2 C 45 % 57 % 6 % 1016,2 hPa 0,0 l/m 7,2 km/h (2 Bft) 0 min 6,4 km/h (2 Bft)
13.06.2010 19:22 22,8 C 17,7 C 2,0 UV-I 0,1 C 45 % 57 % 3 % 1016,2 hPa 0,0 l/m 6,4 km/h (2 Bft) 0 min 8,7 km/h (2 Bft)
13.06.2010 19:28 22,8 C 17,4 C 1,9 UV-I 0,3 C 45 % 56 % 9 % 1016,2 hPa 0,0 l/m 6,4 km/h (2 Bft) 0 min 13,8 km/h (3 Bft)
13.06.2010 19:32 22,8 C 17,5 C 1,8 UV-I 0,1 C 45 % 57 % 3 % 1016,2 hPa 0,0 l/m 8,0 km/h (2 Bft) 0 min 5,8 km/h (2 Bft)
13.06.2010 19:36 22,7 C 17,4 C 1,6 UV-I 0,0 C 46 % 57 % 0 % 1016,2 hPa 0,0 l/m 8,4 km/h (2 Bft) 0 min 11,9 km/h (2 Bft)
13.06.2010 19:38 22,7 C 17,3 C 1,6 UV-I 0,1 C 45 % 57 % 3 % 1016,2 hPa 0,0 l/m 8,4 km/h (2 Bft) 0 min 8,7 km/h (2 Bft)
13.06.2010 19:40 22,6 C 17,2 C 1,6 UV-I 0,2 C 45 % 57 % 6 % 1016,2 hPa 0,0 l/m 8,8 km/h (2 Bft) 0 min 10,0 km/h (2 Bft)
13.06.2010 19:42 22,6 C 17,3 C 1,5 UV-I 0,0 C 45 % 57 % 0 % 1016,2 hPa 0,0 l/m 8,8 km/h (2 Bft) 0 min 10,3 km/h (2 Bft)
13.06.2010 19:44 22,6 C 17,2 C 1,5 UV-I 0,0 C 46 % 57 % 0 % 1016,2 hPa 0,0 l/m 9,6 km/h (2 Bft) 0 min 7,4 km/h (2 Bft)
13.06.2010 19:46 22,6 C 17,2 C 1,5 UV-I 0,0 C 46 % 58 % 0 % 1016,2 hPa 0,0 l/m 9,6 km/h (2 Bft) 0 min 8,0 km/h (2 Bft)
13.06.2010 19:50 22,5 C 17,1 C 1,5 UV-I 0,0 C 45 % 58 % 0 % 1016,2 hPa 0,0 l/m 9,2 km/h (2 Bft) 0 min 5,8 km/h (2 Bft)
13.06.2010 19:53 22,4 C 17,1 C 1,3 UV-I 0,0 C 46 % 58 % 0 % 1015,7 hPa 0,0 l/m 7,2 km/h (2 Bft) 0 min 10,0 km/h (2 Bft)
13.06.2010 19:58 22,4 C 17,1 C 1,3 UV-I 0,0 C 46 % 58 % 0 % 1015,7 hPa 0,0 l/m 7,2 km/h (2 Bft) 0 min 10,0 km/h (2 Bft)
13.06.2010 20:00 22,4 C 17,0 C 1,2 UV-I 0,0 C 46 % 58 % 0 % 1015,7 hPa 0,0 l/m 8,4 km/h (2 Bft) 0 min 8,7 km/h (2 Bft)
13.06.2010 20:05 22,4 C 17,0 C 1,2 UV-I 0,0 C 46 % 58 % 0 % 1015,7 hPa 0,0 l/m 8,8 km/h (2 Bft) 0 min 6,1 km/h (2 Bft)
13.06.2010 20:10 22,3 C 16,9 C 1,1 UV-I 0,0 C 46 % 58 % 0 % 1015,7 hPa 0,0 l/m 8,0 km/h (2 Bft) 0 min 6,8 km/h (2 Bft)
13.06.2010 20:15 22,2 C 16,8 C 1,0 UV-I 0,0 C 46 % 58 % 0 % 1015,6 hPa 0,0 l/m 8,4 km/h (2 Bft) 0 min 8,0 km/h (2 Bft)
13.06.2010 20:20 22,2 C 16,8 C 1,0 UV-I 0,0 C 46 % 58 % 0 % 1015,6 hPa 0,0 l/m 8,8 km/h (2 Bft) 0 min 5,5 km/h (1 Bft)
13.06.2010 20:25 22,1 C 16,9 C 1,0 UV-I 0,0 C 46 % 59 % 0 % 1015,6 hPa 0,0 l/m 7,6 km/h (2 Bft) 0 min 10,6 km/h (2 Bft)
13.06.2010 20:30 22,1 C 16,8 C 0,9 UV-I 0,0 C 46 % 59 % 0 % 1015,6 hPa 0,0 l/m 7,2 km/h (2 Bft) 0 min 7,1 km/h (2 Bft)
13.06.2010 20:35 22,0 C 16,7 C 0,7 UV-I 0,0 C 46 % 59 % 0 % 1015,5 hPa 0,0 l/m 6,4 km/h (2 Bft) 0 min 3,5 km/h (1 Bft)
13.06.2010 20:40 22,0 C 16,7 C 0,7 UV-I 0,0 C 47 % 59 % 0 % 1015,5 hPa 0,0 l/m 6,8 km/h (2 Bft) 0 min 6,1 km/h (2 Bft)
13.06.2010 20:45 22,0 C 16,5 C 0,7 UV-I 0,0 C 47 % 60 % 0 % 1015,5 hPa 0,0 l/m 7,6 km/h (2 Bft) 0 min 6,1 km/h (2 Bft)
13.06.2010 20:50 21,9 C 16,5 C 0,6 UV-I 0,0 C 47 % 61 % 0 % 1015,5 hPa 0,0 l/m 7,2 km/h (2 Bft) 0 min 6,8 km/h (2 Bft)
13.06.2010 20:55 21,9 C 16,4 C 0,5 UV-I 0,0 C 47 % 61 % 0 % 1015,3 hPa 0,0 l/m 6,8 km/h (2 Bft) 0 min 5,8 km/h (2 Bft)
13.06.2010 21:00 21,8 C 16,4 C 0,4 UV-I 0,0 C 47 % 62 % 0 % 1015,3 hPa 0,0 l/m 6,8 km/h (2 Bft) 0 min 0,0 km/h (0 Bft)
13.06.2010 21:05 21,7 C 16,4 C 0,4 UV-I 0,0 C 47 % 62 % 0 % 1015,3 hPa 0,0 l/m 4,4 km/h (1 Bft) 0 min 3,5 km/h (1 Bft)
13.06.2010 21:10 21,7 C 16,4 C 0,3 UV-I 0,0 C 47 % 63 % 0 % 1015,3 hPa 0,0 l/m 2,4 km/h (1 Bft) 0 min 0,0 km/h (0 Bft)
13.06.2010 21:15 21,6 C 16,3 C 0,3 UV-I 0,0 C 47 % 62 % 0 % 1015,0 hPa 0,0 l/m 1,6 km/h (1 Bft) 0 min 4,5 km/h (1 Bft)
13.06.2010 21:20 21,6 C 16,2 C 0,3 UV-I 0,0 C 47 % 62 % 0 % 1015,0 hPa 0,0 l/m 2,4 km/h (1 Bft) 0 min 8,0 km/h (2 Bft)
13.06.2010 21:25 21,5 C 16,3 C 0,2 UV-I 0,0 C 47 % 62 % 0 % 1015,0 hPa 0,0 l/m 4,0 km/h (1 Bft) 0 min 3,2 km/h (1 Bft)
13.06.2010 21:30 21,5 C 16,1 C 0,1 UV-I 0,0 C 48 % 63 % 0 % 1015,0 hPa 0,0 l/m 6,0 km/h (2 Bft) 0 min 6,1 km/h (2 Bft)
13.06.2010 21:35 21,4 C 16,0 C 0,1 UV-I 0,0 C 48 % 63 % 0 % 1015,1 hPa 0,0 l/m 6,0 km/h (2 Bft) 0 min 8,7 km/h (2 Bft)
13.06.2010 21:40 21,4 C 16,0 C 0,1 UV-I 0,0 C 48 % 64 % 0 % 1015,1 hPa 0,0 l/m 3,2 km/h (1 Bft) 0 min 0,0 km/h (0 Bft)
13.06.2010 21:45 21,4 C 15,9 C 0,0 UV-I 0,0 C 48 % 64 % 0 % 1015,1 hPa 0,0 l/m 2,0 km/h (1 Bft) 0 min 3,5 km/h (1 Bft)
13.06.2010 21:55 21,2 C 15,8 C 0,0 UV-I 0,0 C 48 % 64 % 0 % 1015,1 hPa 0,0 l/m 5,6 km/h (1 Bft) 0 min 4,5 km/h (1 Bft)
13.06.2010 22:00 21,2 C 15,7 C 0,0 UV-I 0,0 C 48 % 64 % 0 % 1015,1 hPa 0,0 l/m 6,4 km/h (2 Bft) 0 min 4,8 km/h (1 Bft)
13.06.2010 22:05 21,2 C 15,6 C 0,0 UV-I 0,0 C 48 % 65 % 0 % 1015,1 hPa 0,0 l/m 5,2 km/h (1 Bft) 0 min 0,0 km/h (0 Bft)
13.06.2010 22:10 21,1 C 15,7 C 0,0 UV-I 0,0 C 48 % 65 % 0 % 1015,1 hPa 0,0 l/m 3,2 km/h (1 Bft) 0 min 0,0 km/h (0 Bft)
13.06.2010 22:15 21,1 C 15,7 C 0,0 UV-I 0,0 C 48 % 65 % 0 % 1015,1 hPa 0,0 l/m 2,0 km/h (1 Bft) 0 min 4,5 km/h (1 Bft)
13.06.2010 22:20 21,0 C 15,5 C 0,0 UV-I 0,0 C 49 % 65 % 0 % 1015,1 hPa 0,0 l/m 3,2 km/h (1 Bft) 0 min 4,8 km/h (1 Bft)
13.06.2010 22:25 21,0 C 15,5 C 0,0 UV-I 0,0 C 49 % 66 % 0 % 1015,1 hPa 0,0 l/m 3,2 km/h (1 Bft) 0 min 6,8 km/h (2 Bft)
13.06.2010 22:30 20,9 C 15,5 C 0,0 UV-I 0,0 C 49 % 66 % 0 % 1015,1 hPa 0,0 l/m 3,2 km/h (1 Bft) 0 min 3,5 km/h (1 Bft)
13.06.2010 22:35 20,9 C 15,5 C 0,0 UV-I 0,0 C 49 % 66 % 0 % 1015,2 hPa 0,0 l/m 2,8 km/h (1 Bft) 0 min 0,0 km/h (0 Bft)
13.06.2010 22:40 20,9 C 15,3 C 0,0 UV-I 0,0 C 49 % 66 % 0 % 1015,2 hPa 0,0 l/m 1,6 km/h (1 Bft) 0 min 0,0 km/h (0 Bft)
13.06.2010 22:45 20,8 C 15,2 C 0,0 UV-I 0,0 C 49 % 67 % 0 % 1015,2 hPa 0,0 l/m 1,2 km/h (1 Bft) 0 min 4,8 km/h (1 Bft)
13.06.2010 22:50 20,8 C 15,2 C 0,0 UV-I 0,0 C 49 % 67 % 0 % 1015,2 hPa 0,0 l/m 2,0 km/h (1 Bft) 0 min 4,8 km/h (1 Bft)
13.06.2010 22:55 20,8 C 15,1 C 0,0 UV-I 0,0 C 49 % 68 % 0 % 1015,2 hPa 0,0 l/m 4,0 km/h (1 Bft) 0 min 5,1 km/h (1 Bft)
13.06.2010 23:00 20,8 C 15,1 C 0,0 UV-I 0,0 C 49 % 68 % 0 % 1015,2 hPa 0,0 l/m 4,4 km/h (1 Bft) 0 min 4,5 km/h (1 Bft)
13.06.2010 23:05 20,7 C 14,9 C 0,0 UV-I 0,0 C 50 % 68 % 0 % 1015,2 hPa 0,0 l/m 3,6 km/h (1 Bft) 0 min 3,2 km/h (1 Bft)
13.06.2010 23:10 20,7 C 14,8 C 0,0 UV-I 0,0 C 50 % 69 % 0 % 1015,2 hPa 0,0 l/m 2,8 km/h (1 Bft) 0 min 0,0 km/h (0 Bft)
13.06.2010 23:15 20,7 C 14,8 C 0,0 UV-I 0,0 C 50 % 69 % 0 % 1015,3 hPa 0,0 l/m 0,4 km/h (0 Bft) 0 min 0,0 km/h (0 Bft)
13.06.2010 23:20 20,6 C 14,7 C 0,0 UV-I 0,0 C 50 % 69 % 0 % 1015,3 hPa 0,0 l/m 0,4 km/h (0 Bft) 0 min 0,0 km/h (0 Bft)
13.06.2010 23:25 20,6 C 14,7 C 0,1 UV-I 0,0 C 50 % 69 % 0 % 1015,3 hPa 0,0 l/m 0,4 km/h (0 Bft) 0 min 0,0 km/h (0 Bft)
13.06.2010 23:30 20,6 C 14,5 C 0,0 UV-I 0,0 C 50 % 70 % 0 % 1015,3 hPa 0,0 l/m 0,4 km/h (0 Bft) 0 min 0,0 km/h (0 Bft)
13.06.2010 23:35 20,5 C 14,4 C 0,1 UV-I 0,0 C 50 % 70 % 0 % 1014,9 hPa 0,0 l/m 0,0 km/h (0 Bft) 0 min 0,0 km/h (0 Bft)
13.06.2010 23:40 20,5 C 14,3 C 0,1 UV-I 0,0 C 50 % 71 % 0 % 1014,9 hPa 0,0 l/m 0,0 km/h (0 Bft) 0 min 0,0 km/h (0 Bft)
13.06.2010 23:45 20,5 C 14,2 C 0,0 UV-I 0,0 C 50 % 71 % 0 % 1014,9 hPa 0,0 l/m 0,0 km/h (0 Bft) 0 min 0,0 km/h (0 Bft)
13.06.2010 23:50 20,4 C 14,2 C 0,0 UV-I 0,0 C 50 % 71 % 0 % 1014,9 hPa 0,0 l/m 0,0 km/h (0 Bft) 0 min 0,0 km/h (0 Bft)
13.06.2010 23:55 20,4 C 14,1 C 0,0 UV-I 0,0 C 51 % 71 % 0 % 1014,6 hPa 0,0 l/m 0,0 km/h (0 Bft) 0 min 0,0 km/h (0 Bft)
_ Min-Zeit 06:28 06:00 00:02 00:00 16:08 15:54 00:00 23:55 - 00:00 - 00:00
Minimum _ 17,7 C 7,7 C 0,0 UV-I 0,0 C 42 % 46 % 0 % 1014,6 hPa - 0,0 km/h (0 Bft) - 0,0 km/h (0 Bft)
_ Max-Zeit 16:32 15:50 10:42 10:48 07:54 06:20 08:26 09:32 00:00 18:56 08:24 15:10
Maximum _ 24,4 C 20,2 C 17,6 UV-I 9,6 C 57 % 93 % 100 % 1020,2 hPa 0,0 l/m 12,4 km/h
W-SW (3 Bft)
2 min 25,1 km/h
S-SW (4 Bft)
Durchschnitt _ 20,4 C 14,3 C 4,2 UV-I 2,3 C 50 % 70 % 41 % 1018,3 hPa #0,0 l/m 3,2 km/h (1 Bft) #7:31 h 3,7 km/h (1 Bft)
© 2012 W. Hausmann